Está en la página 1de 36

SANTINI GRANFONDO STELVIO

CRONOSCALATA MORTIROLO - KM 11,50

Posiz Pett Cognome Sesso PosSex Società Tempo Media Percorso


1 10 ZEN ENRICO M 1 TEAM TERENZI TREK GIST 00:48:03.60 14,36 LUNGO
2 6 FELLINE FABIO M 2 TREK SEGAFREDO 00:48:44.40 14,16 LUNGO
3 358 DE LORENZI CHRISTIAN M 3 ALTA VALTELLINA BIKE 00:49:49.70 13,85 LUNGO
4 356 LORENZINI PIERO M 4 ARGON 18 - HICARI - STEMAX 00:50:15.30 13,73 LUNGO
5 2138 GRANT RUARI M 5 INDIVIDUALE 00:50:30.40 13,66 LUNGO
6 656 PODLOGAR TIM M 6 INDIVIDUALE 00:50:46.10 13,59 LUNGO
7 1 CASARTELLI FABRIZIO M 7 COLNAGO-MG.K VIS 00:53:10.30 12,98 LUNGO
8 2565 EDELSTEIN PAUL M 8 INDIVIDUALE 00:53:15.90 12,96 LUNGO
9 1443 MOCCI STEFANO M 9 ASD TOKENS CICLI BETTONI COSTA VOLPINO 00:53:31.00 12,89 LUNGO
10 1746 MAGGI GIOVANNI M 10 INDIVIDUALE 00:54:05.60 12,76 LUNGO
11 1491 HAGENAARS PATRICK M 11 RADSPORT STANGER 00:54:24.30 12,68 LUNGO
12 174 CAVALLO MATTIA M 12 CICLI PEPINO 00:54:40.70 12,62 LUNGO
13 622 HEFNER HEIKO M 13 INDIVIDUALE 00:54:44.20 12,61 LUNGO
14 90 RUVOLO ANTONINO M 14 ASD GRASSO VILLANTI 00:54:56.80 12,56 LUNGO
15 546 BERNINGER MICHAEL M 15 TOBSENSWORLD 00:55:05.70 12,53 LUNGO
16 2687 GARZETTI MARCO M 16 ALTA VALTELLINA BIKE 00:55:13.80 12,5 LUNGO
17 3233 FIGINI LUCA M 17 GEFO 00:55:15.70 12,49 LUNGO
18 111 DOTTI TOMMASO M 18 TEAM MILANO CYCLING ASD 00:55:16.30 12,48 LUNGO
19 380 PEDRANZINI DENIS M 19 ALTA VALTELLINA BIKE 00:55:18.70 12,48 LUNGO
20 1026 TAGLIARENI FRANCESCO M 20 TEAM ALI' CYCLING 00:55:20.00 12,47 LUNGO
21 17 ANTONIOLI MICHELE M 21 US BORMIESE 00:55:50.50 12,36 LUNGO
22 913 MAGNINI ANDREA M 22 OLIMPIA CYCLING TEAM ASD 00:56:00.70 12,32 LUNGO
23 2191 BARRIE JOHN M 23 INDIVIDUALE 00:56:08.20 12,29 LUNGO
24 2233 KNUDSEN FREDERIK M 24 ULSTRUP CYKELMOTION 00:56:29.70 12,22 LUNGO
25 39 MARINELLI PIETRO M 25 US BORMIESE 00:56:33.70 12,2 LUNGO
26 424 SCALA STEFANO M 26 ASD TEAM DUAL BIKE CANTU’ 00:56:53.70 12,13 LUNGO
27 1298 PIZZORNO DANIELE M 27 SUPERBA PROGETTO BICI 00:57:07.40 12,08 LUNGO
28 2611 FALBO FRANCESCO GIUSEPPE M 28 GIGABIKE 00:57:58.40 11,9 LUNGO
29 929 MOORE ROBERT M 29 NUUN SIGMA SPORTS 00:58:04.30 11,88 LUNGO
30 3248 LUALDI FEDERICO M 30 VANZAVILLA TEAM 00:58:05.70 11,88 LUNGO
31 2641 ROBLES CASADO JESUS A. M 31 EXPRESS CAR ULB CCC 00:58:10.60 11,86 LUNGO
32 18 BIANCHI REMO M 32 US BORMIESE 00:58:15.70 11,85 LUNGO
33 321 LAWAETZ RASMUSSEN JONATHAN M 33 INDIVIDUALE 00:58:19.50 11,83 LUNGO
34 488 SHAW MARTIN M 34 KULMINE W.A.C. 00:58:27.70 11,8 LUNGO
35 785 CALLEJO FRANCISCO M 35 SAN LORENZO 00:58:30.80 11,79 LUNGO
36 1079 D'ANTONIO SALVATORE M 36 CICLI DEDONATO ROAD RUNNERS 00:58:32.20 11,79 LUNGO
37 2324 KRAUSE JENS M 37 INDIVIDUALE 00:58:33.30 11,78 LUNGO

Classifica elaborata da www.winningtime.it


SANTINI GRANFONDO STELVIO
CRONOSCALATA MORTIROLO - KM 11,50

Posiz Pett Cognome Sesso PosSex Società Tempo Media Percorso


38 2511 WÖRZ PAULINA F 1 RSC KEMPTEN 00:58:35.00 11,78 LUNGO
39 687 SALVATORE VITO M 38 ASD GS MUROLO COSTRUZIONI 00:58:37.70 11,77 LUNGO
40 2373 ROBAKOWSKI MARCIN M 39 INDIVIDUALE 00:58:38.70 11,77 LUNGO
41 2295 SOUZA THIAGO M 40 INDIVIDUALE 00:58:44.40 11,75 LUNGO
42 3253 CANTONI DAVIDE FRANCESCO M 41 US BORMIESE 00:58:51.90 11,72 LUNGO
43 216 PRATO ANNALISA F 2 TEAM DE ROSA SANTINI 00:59:14.50 11,65 LUNGO
44 1251 BELLOMI FABIO M 42 TEAM PIRATA VAL DI CORTENO-APRICA ASD 00:59:15.80 11,65 LUNGO
45 960 PEREZ FERNANDEZ JORGE M 43 C.C. OS ESFOLA ARROS 00:59:20.50 11,63 LUNGO
46 21 SCHENA DANIELE M 44 US BORMIESE 00:59:28.20 11,6 LUNGO
47 3279 LORENZI GIOVANNI M 45 TRITTICI DEL SERRA 00:59:31.90 11,59 LUNGO
48 3228 BORGONOVO ROBERTO M 46 TEAM BMX GARLATE 00:59:36.20 11,58 LUNGO
49 1200 STRATMANN PHILIPP M 47 INDIVIDUALE 00:59:46.50 11,54 LUNGO
50 2268 SØRENSEN GLEN M 48 INDIVIDUALE 00:59:47.30 11,54 LUNGO
51 487 VESTERGAARD POUL M 49 KTK86 00:59:52.20 11,53 LUNGO
52 2285 ETTENHUBER FYNN M 50 WERKSTATT 17 BIKESHOP 00:59:54.70 11,52 LUNGO
53 2498 MAGAUD ANTOINE M 51 ISLINGTON CYCLING CLUB 00:59:58.60 11,51 LUNGO
54 2702 OSELE ROLAND M 52 SC MERAN ZORZI KÄLTETECHNIK 01:00:04.50 11,49 LUNGO
55 1867 CERUTTI GIACOMO M 53 TEAM VALLI DEL ROSA 01:00:05.60 11,48 LUNGO
56 429 TOMASSONE PATRICK M 54 ASD VELO CLUB VALSUSA 01:00:08.70 11,47 LUNGO
57 1267 OBLETTER STEPHAN M 55 POLI.A.V.I. BIKE TEAM 01:00:14.70 11,46 LUNGO
58 369 MENICONI FABIO M 56 ASD SIENA NEL CUORE 01:00:19.30 11,44 LUNGO
59 2014 CIACCI ALESSANDRO M 57 TUSCANYGO WELLNESS & SPORT 01:00:19.50 11,44 LUNGO
60 314 HØG TORKIL M 58 INDIVIDUALE 01:00:25.20 11,42 LUNGO
61 2387 HAMBURGER HAMBURGER M 59 INDIVIDUALE 01:00:26.00 11,42 LUNGO
62 2 ZIGGIOTTI MIRKO M 60 ASD RODMAN AZIMUT 01:00:35.90 11,39 LUNGO
63 68 ROSSI SIMONE M 61 G.S. CICLISTI GRASSINA 01:00:36.10 11,39 LUNGO
64 2591 SANCHEZ ALCALDE SERGIO M 62 INDIVIDUALE 01:00:53.30 11,33 LUNGO
65 3243 SPANDRI LUCA M 63 PEDALE LECCHESE 01:00:54.60 11,33 LUNGO
66 107 FIEGE LORENZ M 64 TEAM DEUTSCHLAND TOUR 01:01:04.70 11,3 LUNGO
67 770 BORTOLASO PIETRO M 65 ASD BIKE ADVANTURE 01:01:08.90 11,29 LUNGO
68 2428 DONDONI ANGELO M 66 SQUADRA CORSE CUSSIGH BIKE 01:01:11.50 11,28 LUNGO
69 1046 VAN DER WINDT ABEL M 67 INDIVIDUALE 01:01:16.60 11,26 LUNGO
70 169 ABANCÓ TUDÓ ARNAU M 68 TRICUBE MANRESA 01:01:16.70 11,26 LUNGO
71 498 GHISLENI GIACOMO M 69 OESTARA 01:01:19.20 11,25 LUNGO
72 1602 GROPPI SIMONE M 70 ASD CASSINIS CYCLING TEAM 01:01:23.40 11,24 LUNGO
73 862 HERMANN JACOB M 71 BIG GUYS ON SMALL RINGS 01:01:29.80 11,22 LUNGO
74 29 CAPELLI ANGELO M 72 US BORMIESE 01:01:35.50 11,2 LUNGO

Classifica elaborata da www.winningtime.it


SANTINI GRANFONDO STELVIO
CRONOSCALATA MORTIROLO - KM 11,50

Posiz Pett Cognome Sesso PosSex Società Tempo Media Percorso


75 976 RAVN JACOB M 73 SLAGELSE BIKE BOYS 01:01:39.20 11,19 LUNGO
76 100 CAGLIONI NICOLA M 74 OESTARA CYCLING TEAM 01:01:47.60 11,17 LUNGO
77 1580 POITSCH MARCO M 75 TEAM ALE DEUTSCHLAND 01:02:06.90 11,11 LUNGO
78 2661 CUSI ALBERTO M 76 CICLISTICA PRADALUNGHESE 01:02:11.00 11,1 LUNGO
79 1770 BOSCHINI GIAN M 77 ASD TEAM ALL4CYCLING-BDC 01:02:29.90 11,04 LUNGO
80 2598 GAVIRIA JUAN M 78 COLOMBIA 01:02:37.50 11,02 LUNGO
81 1712 MARCHETTI STEFANO M 79 GARFAGNANA TEAM CICLI MORI 01:02:41.50 11,01 LUNGO
82 3272 JOHANSSON MIIKA SAMUEL M 80 INDIVIDUALE 01:02:45.90 11 LUNGO
83 3276 RAINOLTER ANDREA M 81 ASD POOL CANTU' 01:02:49.50 10,98 LUNGO
84 445 CHAUVET DAVY M 82 CYCLO CLUB ROCHOISX 01:02:52.80 10,98 LUNGO
85 389 ZANOLO MASSIMILIANO M 83 ASD CUORE GRINTA PASSIONE 01:02:52.90 10,98 LUNGO
86 3278 RAICH CHRISTIAN M 84 RMCV 01:03:01.00 10,95 LUNGO
87 1598 ARTNER ALEX M 85 INDIVIDUALE 01:03:03.90 10,94 LUNGO
88 411 LIMIDO SERGIO M 86 ASD NEW TEAM 01:03:04.80 10,94 LUNGO
89 2045 LONERGAN KILLIAN M 87 INDIVIDUALE 01:03:12.10 10,92 LUNGO
90 943 NIELSEN TAGE M 88 GREVE TRIM CYKEL MOTION 01:03:14.40 10,91 LUNGO
91 43 RAINOLTER MARCO M 89 US BORMIESE 01:03:19.00 10,9 LUNGO
92 624 HUGHES MICHAEL M 90 INDIVIDUALE 01:03:19.50 10,9 LUNGO
93 2638 QUINTER ANDREAS M 91 INDIVIDUALE 01:03:26.90 10,88 LUNGO
94 1286 FRONZAROLI EMILIEN M 92 TRIATHLON LANEUVEVILLE 01:03:32.70 10,86 LUNGO
95 788 CAPIRONE DARIO M 93 US VIGOR IVREA 01:03:42.60 10,83 LUNGO
96 1327 WOLF ANTON M 94 RADSPORTTEAM GAIMERSHEIM 01:03:49.00 10,81 LUNGO
97 215 GAZZOTTI LIBERO M 95 TEAM DE ROSA SANTINI 01:03:49.50 10,81 LUNGO
98 752 BECKERT MARIO M 96 INDIVIDUALE 01:03:58.20 10,79 LUNGO
99 2600 BEYERS CHRISTIAAN M 97 INDIVIDUALE 01:04:03.40 10,77 LUNGO
100 1268 RUIZ ESTRAMIANA JESUS M 98 AC HOTELS BY MARRIOTT 01:04:07.40 10,76 LUNGO
101 2660 BERGAMELLI MARCO M 99 INDIVIDUALE 01:04:11.70 10,75 LUNGO
102 507 MANDILLO PERSEU M 100 RCCCPH 01:04:12.70 10,75 LUNGO
103 2424 CROSILLA CLAUDIO M 101 SQUADRA CORSE CUSSIGH BIKE 01:04:13.30 10,74 LUNGO
104 1112 NATALE MARCO M 102 RENNRADLN MÜNCHEN 01:04:16.30 10,74 LUNGO
105 2528 JÉRÔME RAMPAZZO M 103 INDIVIDUALE 01:04:21.20 10,72 LUNGO
106 1245 WAGNER MATTHIAS M 104 QUANTOR RACING TEAM 01:04:24.80 10,71 LUNGO
107 2291 OVED SHAI M 105 INDIVIDUALE 01:04:31.70 10,69 LUNGO
108 1310 GONZÁLEZ GALVÁN IGOR M 106 CLUB CICLISTA CASTRO 01:04:33.10 10,69 LUNGO
109 2445 TILFORD STEPHEN M 107 INDIVIDUALE 01:04:37.30 10,68 LUNGO
110 84 PERUTA GIANLUCA M 108 ASD BIKE AVENGERS 01:04:37.40 10,68 LUNGO
111 2062 TRACOGNA MARCO M 109 INDIVIDUALE 01:04:38.70 10,68 LUNGO

Classifica elaborata da www.winningtime.it


SANTINI GRANFONDO STELVIO
CRONOSCALATA MORTIROLO - KM 11,50

Posiz Pett Cognome Sesso PosSex Società Tempo Media Percorso


112 732 ANDRE CHRISTIAN M 110 LG BERTRANGE 01:04:39.50 10,67 LUNGO
113 1930 WURM FABIAN M 111 LEVEL 307 01:04:42.00 10,66 LUNGO
114 3229 PANZERI LORENZO M 112 VAM RACE ASD 01:04:42.40 10,66 LUNGO
115 616 GIROTTI ENRICO CARLO M 113 INDIVIDUALE 01:04:46.20 10,65 LUNGO
116 2579 SILLER THOMAS M 114 INDIVIDUALE 01:04:46.20 10,65 LUNGO
117 1062 ZICKERMANN JENS M 115 INDIVIDUALE 01:04:47.80 10,65 LUNGO
118 3252 MAGAROTTO FABIO M 116 US BORMIESE 01:04:53.90 10,63 LUNGO
119 183 ROGGERINI FABRIZIO M 117 ASD TEAM ALL4CYCLING-BDC 01:05:00.00 10,62 LUNGO
120 20 ANDREOLA NICCOLÒ M 118 US BORMIESE 01:05:01.40 10,61 LUNGO
121 1174 LAMBERT FABRICE M 119 INDIVIDUALE 01:05:06.20 10,6 LUNGO
122 771 BOUDIER CEDRIC M 120 INDIVIDUALE 01:05:06.40 10,6 LUNGO
123 502 KOFLER ALAIN M 121 POLISPORTIVA CERVINIA 01:05:07.40 10,6 LUNGO
124 1791 HÖRFARTER MARTIN M 122 INDIVIDUALE 01:05:07.40 10,6 LUNGO
125 1728 PINTAURO GIUSEPPE M 123 FRECCE DEL GOLFO 01:05:11.20 10,59 LUNGO
126 331 NERSTRØM CHRISTIAN M 124 INDIVIDUALE 01:05:13.20 10,58 LUNGO
127 1117 PAOLI DAVID M 125 INDIVIDUALE 01:05:14.90 10,58 LUNGO
128 1160 DE WITTE LIEVEN M 126 INDIVIDUALE 01:05:15.00 10,57 LUNGO
129 1645 SCHÄFER JOHANNES M 127 RSC BIMBACH 01:05:15.10 10,57 LUNGO
130 427 BERTAZZOLO ANGELO M 128 ASD TREGASIO CYCLING TEAM 01:05:17.20 10,57 LUNGO
131 2119 CANEDO MATIAS M 129 INDIVIDUALE 01:05:22.70 10,56 LUNGO
132 1809 SAVOIA FABIO M 130 UISP 01:05:24.40 10,55 LUNGO
133 1478 SCHULZE OLAF M 131 RASCH 01:05:25.20 10,55 LUNGO
134 1013 SOMMER LASSE M 132 MTB RANDERS 01:05:28.80 10,54 LUNGO
135 240 JACOBSEN MADS M 133 RUBY REJSER 01:05:30.50 10,53 LUNGO
136 1583 THIERE WOLFGANG M 134 TEAM TESLA 01:05:30.70 10,53 LUNGO
137 876 JAHN ELO M 135 GIVE CYKELKLUB 01:05:35.70 10,52 LUNGO
138 9 MOLINARI GIULIO M 136 PRO TRIATHLETE 01:05:39.70 10,51 LUNGO
139 2082 WILDNER HENDRIK M 137 RC SEEBACH 01:05:41.60 10,5 LUNGO
140 1464 EDMONDSON CHRIS M 138 VELOTIK RACING TEAM 01:05:42.20 10,5 LUNGO
141 540 SALA ROBERTO M 139 TEAM VISCARDI ASD 01:05:56.70 10,47 LUNGO
142 1872 GIUDICI RICCARDO M 140 ASD CELLAR TEAM TREDICI 01:05:57.80 10,46 LUNGO
143 2740 ROSE JOSH M 141 INDIVIDUALE 01:05:57.90 10,46 LUNGO
144 908 LOSADA FERRO JOSE ANTONIO M 142 C.C. OS ESFOLA ARROS 01:06:08.80 10,43 LUNGO
145 1021 STORMHOLT JESPER M 143 GREVE TRIM CYKELMOTION 01:06:09.70 10,43 LUNGO
146 2602 MOLTENI ANDREA M 144 ASD TEAM ALL4CYCLING-BDC 01:06:17.60 10,41 LUNGO
147 1834 STOCCHI GIANNI M 145 INDIVIDUALE 01:06:18.00 10,41 LUNGO
148 1536 MØRKEBERG JACOB M 146 HBI 01:06:24.10 10,39 LUNGO

Classifica elaborata da www.winningtime.it


SANTINI GRANFONDO STELVIO
CRONOSCALATA MORTIROLO - KM 11,50

Posiz Pett Cognome Sesso PosSex Società Tempo Media Percorso


149 1760 RECIO JESUS M 147 ARDOZ 01:06:28.10 10,38 LUNGO
150 3224 1279 01:06:32.20 10,37 LUNGO
151 2464 COTALI PIERGIUSEPPE M 148 BUSSACCHINI LUIGI ASD 01:06:40.40 10,35 LUNGO
152 1094 GÖTZE FRANK M 149 INDIVIDUALE 01:06:43.20 10,34 LUNGO
153 1132 SOLA LOPEZ DANIEL M 150 INDIVIDUALE 01:06:44.10 10,34 LUNGO
154 447 HEGEL JULIAN M 151 DAV HERSBRUCK 01:06:48.50 10,33 LUNGO
155 1144 ALBAO CORDOBA JUAN ANTONIO M 152 INDIVIDUALE 01:06:49.90 10,33 LUNGO
156 1460 LOVATI STEFANO MARIO M 153 INDIVIDUALE 01:06:53.40 10,32 LUNGO
157 868 HOFFMANN MARTIN M 154 BIG GUYS ON SMALL RINGS 01:06:55.10 10,31 LUNGO
158 1533 ESBRÍ DANIEL M 155 NOLOBIKER-CLUB TRIATLÓ BASILISCUS 01:06:55.60 10,31 LUNGO
159 966 PIGNOCCHINO GIANLUIGI M 156 U.S. VIGOR IVREA 01:06:55.70 10,31 LUNGO
160 1702 SPARRER GERHARD M 157 DAV MÜNCHEN 01:06:57.30 10,31 LUNGO
161 1004 SCHERZ MATHIAS M 158 INDIVIDUALE 01:06:59.00 10,3 LUNGO
162 2710 GOTTI ALBERTO M 159 2R BIKE STORE 01:06:59.40 10,3 LUNGO
163 481 TAGLIAVINI ANDREA M 160 INDIVIDUALE 01:07:00.20 10,3 LUNGO
164 1292 MCCARTHY LIAM M 161 ORWELL WHEELERS 01:07:02.20 10,29 LUNGO
165 2594 GALLO MATTEO M 162 G.S. SPORTISSIMO 01:07:05.20 10,29 LUNGO
166 1299 PRAT ARANDA CARLES M 163 CLUB ESPORTIU CUBE MANRESA 01:07:07.10 10,28 LUNGO
167 244 JENSEN LARS BO M 164 RUBY REJSER 01:07:15.50 10,26 LUNGO
168 2582 FERNANDEZ POUSADA FRANCISCO M 165 CYCLOWOOD 01:07:17.90 10,26 LUNGO
169 2506 DIETL MONIKA F 3 INDIVIDUALE 01:07:24.90 10,24 LUNGO
170 812 CUSATI ANGELO M 166 AC CYCLING 01:07:25.40 10,23 LUNGO
171 2048 PEDERSEN ERIK ROEDKAER M 167 SCRMOTION 01:07:25.50 10,23 LUNGO
172 241 JAPPE HANS HENRIK M 168 RUBY REJSER 01:07:26.40 10,23 LUNGO
173 2683 THISSEN DYLAN M 169 INDIVIDUALE 01:07:27.80 10,23 LUNGO
174 1608 THOMAZEAU SÉBASTIEN M 170 CYCLO CLUB ROCHOIS 01:07:33.20 10,21 LUNGO
175 1879 PICARD SÉBASTIEN M 171 MN BIKE 01:07:37.40 10,2 LUNGO
176 416 ORSI DAVIDE M 172 ASD SAN SIRO. 2001 01:07:37.90 10,2 LUNGO
177 458 BRENNA CLAUDIO M 173 FORMAGGILANDIA2 ASD 01:07:40.40 10,2 LUNGO
178 2133 NALON PAOLO M 174 G.S. MONEGLIESE 01:07:41.90 10,19 LUNGO
179 168 PURTI TAPIA DAMIA M 175 TRICUBE 01:07:46.60 10,18 LUNGO
180 2691 ORAVKIN JOZEF M 176 INDIVIDUALE 01:07:47.30 10,18 LUNGO
181 729 ALAPONT ALACREU RAUL M 177 INDIVIDUALE 01:07:47.90 10,18 LUNGO
182 707 GUEST DAMION M 178 WOLVERHAMPTON WHEELERS 01:07:50.30 10,17 LUNGO
183 1276 TOMA TOMMASO M 179 INDIVIDUALE 01:07:52.90 10,17 LUNGO
184 2148 GAWLIK PATRICK M 180 RADSPORT TEAM GAIMERSHEIM 01:07:54.30 10,16 LUNGO
185 1811 SITTA ALBERTO M 181 BIKE STUDIO 01:08:01.80 10,14 LUNGO

Classifica elaborata da www.winningtime.it


SANTINI GRANFONDO STELVIO
CRONOSCALATA MORTIROLO - KM 11,50

Posiz Pett Cognome Sesso PosSex Società Tempo Media Percorso


186 959 PEREZ CASTRO DAVID M 182 C.C. OS ESFOLA ARROS 01:08:02.60 10,14 LUNGO
187 1009 SKOVBJERG HEINO M 183 GIVE CYKELKLUB 01:08:02.70 10,14 LUNGO
188 2466 NAEGELE HANNES M 184 INNOCENT 17 01:08:02.90 10,14 LUNGO
189 2531 BOURLOUTSKY MAXIM M 185 INDIVIDUALE 01:08:03.50 10,14 LUNGO
190 322 LENDAL CHRISTOFFERSEN ALLAN M 186 INDIVIDUALE 01:08:04.20 10,14 LUNGO
191 1863 TAPPEINER GÜNTHER M 187 ATHLETIC CLUB MERANO 01:08:06.10 10,13 LUNGO
192 434 GUARGUAGLINI ANDREA M 188 BARBEROBIKE 01:08:07.20 10,13 LUNGO
193 2162 INGRAO GIACOMO M 189 ASD BICI & BIKE 01:08:08.70 10,13 LUNGO
194 809 CREGO MIRA ESTEBAN M 190 C. C. OS ESFOLA ARROS 01:08:11.60 10,12 LUNGO
195 1285 FREDERIC DUBESSET M 191 VELO CLUB ROANNAIS 01:08:11.70 10,12 LUNGO
196 3251 PAGNINI STEFANO M 192 US BORMIESE 01:08:11.70 10,12 LUNGO
197 2340 HELGREN-NIELSEN ALLAN M 193 COPENHAGEN 01:08:16.20 10,11 LUNGO
198 522 BJERRING HENRIK M 194 SCR MOTION 01:08:17.80 10,1 LUNGO
199 2619 DISPENZA GIULIO M 195 BICI CAMOGLI GOLFO PARADISO 01:08:23.90 10,09 LUNGO
200 313 HEITMANN THEIS M 196 INDIVIDUALE 01:08:24.30 10,09 LUNGO
201 438 OLDANI MARCO M 197 BRONTOLO BIKE 01:08:26.20 10,08 LUNGO
202 691 PLETZER FRANCO M 198 INNROCK RACING 01:08:31.40 10,07 LUNGO
203 1526 KOOP ALEXANDER M 199 INDIVIDUALE 01:08:32.40 10,07 LUNGO
204 474 NORDSKOV LARS M 200 HBI 01:08:44.20 10,04 LUNGO
205 702 COWIE NEIL M 201 ELGIN CYCLING CLUB 01:08:46.10 10,03 LUNGO
206 3246 BANDERA IVAN M 202 VANZAVILLA TEAM 01:08:46.30 10,03 LUNGO
207 419 ANGELINI MARCO M 203 ASD SPORT BIKE 01:08:46.50 10,03 LUNGO
208 1490 GOSLAR ARNE M 204 SV EINRUHR 01:08:48.90 10,03 LUNGO
209 2382 NOTLEY IAN M 205 INDIVIDUALE 01:08:49.90 10,03 LUNGO
210 1647 SCHRIMPF DANIEL M 206 SV STOCKHAUSEN 01:08:54.60 10,01 LUNGO
211 626 JENNI DANIEL M 207 INDIVIDUALE 01:08:54.60 10,01 LUNGO
212 486 M 208 KD ALPE SIS 01:08:56.50 10,01 LUNGO
213 1127 SCHAARSCHMIDT SEBASTIAN M 209 MERCK SPORTCLUB BUCHS 01:08:56.90 10,01 LUNGO
214 211 CAVALCA STEFANO M 210 TEAM DE ROSA SANTINI 01:09:00.90 10 LUNGO
215 714 MURPHY KEVIN M 211 UN-ATTACHED LEINSTER 01:09:04.20 9,99 LUNGO
216 1973 MACEK MARJAN M 212 KK KAMEN KOCIPER 01:09:08.90 9,98 LUNGO
217 2202 VALLONE CLAUDIO M 213 ASD TEAM JONICA MEGAMO 01:09:09.30 9,98 LUNGO
218 163 VALLS GIMENEZ SERGI M 214 CLUB ESPORTIU CUBE MANRESA 01:09:09.90 9,98 LUNGO
219 350 THOMSEN SØREN CHRISTIAN M 215 INDIVIDUALE 01:09:11.80 9,97 LUNGO
220 906 LOCKWOOD RASMUS M 216 BIG GUYS ON SMALL RINGS 01:09:12.90 9,97 LUNGO
221 2163 MARTELLA SILVANO M 217 ASD BICI & BIKE 01:09:18.20 9,96 LUNGO
222 243 JENSEN IB ERIK M 218 RUBY REJSER 01:09:24.40 9,94 LUNGO

Classifica elaborata da www.winningtime.it


SANTINI GRANFONDO STELVIO
CRONOSCALATA MORTIROLO - KM 11,50

Posiz Pett Cognome Sesso PosSex Società Tempo Media Percorso


223 2297 VOORNEMAN FRANKLIN M 219 RSC KEMPTEN 01:09:26.40 9,94 LUNGO
224 1082 DINELLI FRANCESCO M 220 ST FUTURA BENESSERE 01:09:26.50 9,94 LUNGO
225 2571 HUGO HUYART M 221 UC BRICQUEBEC CYCLISME 01:09:26.70 9,94 LUNGO
226 2359 RASELLI KASPAR M 222 INDIVIDUALE 01:09:30.00 9,93 LUNGO
227 923 MEYER MARC M 223 VELOCIPEDES 01:09:30.40 9,93 LUNGO
228 2709 DICKIE JOHN M 224 INDIVIDUALE 01:09:31.90 9,93 LUNGO
229 1542 BERGA DIEGO M 225 ASD TEAM ALL4CYCLING-BDC 01:09:32.10 9,92 LUNGO
230 1711 LARSEN JACOB BREDVIG M 226 INDIVIDUALE 01:09:32.60 9,92 LUNGO
231 2718 TUTINO ALESSANDRO M 227 CICLI DEDONATO ROAD RUNNERS 01:09:34.10 9,92 LUNGO
232 171 RIUS PINYA MAURI M 228 INDIVIDUALE 01:09:36.90 9,91 LUNGO
233 1301 ZICHOLL STEFAN M 229 INDIVIDUALE 01:09:37.80 9,91 LUNGO
234 768 BONECHI DANIELE M 230 GS CICLI GAUDENZI 01:09:38.50 9,91 LUNGO
235 756 BERGHOLDT AKIO M 231 JAPANESE CHAMPS 01:09:39.90 9,91 LUNGO
236 757 BERGHOLDT YUKIO M 232 JAPANESE CHAMPS 01:09:40.90 9,9 LUNGO
237 500 BRAVI MASSIMO M 233 PEDALE ARQUATESE: COD. 08PC087 01:09:43.50 9,9 LUNGO
238 251 KRISTIANSEN LASSE M 234 RUBY REJSER 01:09:46.90 9,89 LUNGO
239 975 RAVANELLI LUIGI M 235 TITICI ADVENTURE TEAM 01:09:47.20 9,89 LUNGO
240 1961 HANNING SEBASTIAN M 236 INDIVIDUALE 01:09:47.90 9,89 LUNGO
241 1946 BENCEK PRIMOŽ M 237 KD ALPE SIS 01:09:49.40 9,88 LUNGO
242 2320 TAUCCI GABRIELE M 238 TEAM VALLONE 01:09:50.40 9,88 LUNGO
243 983 RIU IGLESIAS JORDI M 239 CLUB CICLISTA MUNTBIKES 01:09:52.60 9,88 LUNGO
244 2526 ROSE JULIAN M 240 INDIVIDUALE 01:09:54.60 9,87 LUNGO
245 1151 BORCHERDING SÖREN M 241 INDIVIDUALE 01:10:04.10 9,85 LUNGO
246 2299 JARLE JAKOB M 242 DYNAMO BORTSHAUSEN 01:10:10.50 9,83 LUNGO
247 1357 VERGNANO GIANLUCA M 243 TEAM CYCLO 01:10:10.60 9,83 LUNGO
248 302 BØRNER STAX TOBIAS M 244 INDIVIDUALE 01:10:13.60 9,83 LUNGO
249 1143 WYSS GIACOMO M 245 INDIVIDUALE 01:10:15.10 9,82 LUNGO
250 2552 SOBIERAJ HENRYK M 246 INDIVIDUALE 01:10:23.30 9,8 LUNGO
251 104 KNOTT OLIVER M 247 RSV MOOSBURG 01:10:27.60 9,79 LUNGO
252 2696 JESSEN PETER M 248 TEAM ALT ELLER INTET 01:10:27.80 9,79 LUNGO
253 2243 CASSESE DAMIANO M 249 INDIVIDUALE 01:10:29.90 9,79 LUNGO
254 2327 INFANTE ANIELLO M 250 TEAM ZETA 01:10:30.50 9,79 LUNGO
255 1042 VALSBORG JACOB STENMANN M 251 TEAM MOST WANTED 01:10:35.60 9,78 LUNGO
256 775 BROGLIA ANDREA M 252 U.S. VIGOR IVREA 01:10:35.80 9,78 LUNGO
257 83 CERACINI MASSIMO M 253 ASD BIKE AVENGERS 01:10:39.60 9,77 LUNGO
258 2187 ANZALONE DARIO M 254 ASD U.C PORTO CERESIO 01:10:40.80 9,76 LUNGO
259 1231 LERVÅG ARNE M 255 INDIVIDUALE 01:10:43.10 9,76 LUNGO

Classifica elaborata da www.winningtime.it


SANTINI GRANFONDO STELVIO
CRONOSCALATA MORTIROLO - KM 11,50

Posiz Pett Cognome Sesso PosSex Società Tempo Media Percorso


260 2125 RUSCONI MICHELE M 256 FORMAGGILANDIA2 ASD 01:10:49.90 9,74 LUNGO
261 1627 ZHITENEV IVAN M 257 STREAMER 01:10:50.20 9,74 LUNGO
262 298 APPEL JØRGENSEN SØREN M 258 INDIVIDUALE 01:10:51.10 9,74 LUNGO
263 51 TOGNI PAOLO M 259 US BORMIESE 01:10:51.20 9,74 LUNGO
264 1553 LEIS MICHAEL M 260 FLYING BIANCHIS 01:10:55.80 9,73 LUNGO
265 821 DURO AGRAFOJO JOSE CARLOS M 261 C.C. OS ESFOLA ARROS 01:11:01.10 9,72 LUNGO
266 1404 VIVACQUA STEFANO M 262 ASD GRUPPO CICLISTICO '95 NOVARA 01:11:05.30 9,71 LUNGO
267 404 MARCHETTI MATTEO M 263 ASD MANIA BIKE 01:11:05.40 9,71 LUNGO
268 348 THERP LARS M 264 INDIVIDUALE 01:11:07.30 9,7 LUNGO
269 1977 MOLFETTA NICOLA M 265 ASDILETTANTISTICA CICLO SPORT MODUGNO 01:11:07.70 9,7 LUNGO
270 2640 RICHARDT JØRGENSEN NIKOLAJ M 266 CC HILLERØD 01:11:08.70 9,7 LUNGO
271 2686 FOTI ALESSANDRO M 267 RODMAN AZIMUT 01:11:11.40 9,69 LUNGO
272 2437 RUECKERT ERICH M 268 RV STURMVOGEL 01:11:14.10 9,69 LUNGO
273 1247 WOLFRAM TORSTEN M 269 ONE MAN WOLFPACK 01:11:14.40 9,69 LUNGO
274 2229 BAHLMANN JAN M 270 INDIVIDUALE 01:11:17.80 9,68 LUNGO
275 253 MOGENSEN NIELS M 271 RUBY REJSER 01:11:20.70 9,67 LUNGO
276 547 IOOS RENAUD M 272 TRI LNEUVEVILLE 01:11:22.40 9,67 LUNGO
277 2244 CATHOMEN LUCA M 273 INDIVIDUALE 01:11:23.80 9,67 LUNGO
278 53 VESCOVI WALTER M 274 US BORMIESE 01:11:28.70 9,65 LUNGO
279 2315 QUEARNS ALAN M 275 BICICOSTA 01:11:30.00 9,65 LUNGO
280 538 GAMBERINI GIANLUIGI M 276 TEAM PASSION FAENTINA 01:11:32.30 9,65 LUNGO
281 683 WÜRFEL MIKE M 277 INDIVIDUALE 01:11:33.90 9,64 LUNGO
282 2622 MERCATELLI ANDREA M 278 INDIVIDUALE 01:11:36.30 9,64 LUNGO
283 301 BOCIANSKI SVENDSEN KIM PER M 279 INDIVIDUALE 01:11:38.00 9,63 LUNGO
284 2544 JIMENEZ HENAO LUIS ALBERTO M 280 INDIVIDUALE 01:11:38.90 9,63 LUNGO
285 2540 SALVINI WILLIAM M 281 G.S. DOSI ASD 01:11:41.30 9,63 LUNGO
286 1813 WARNER MICHAEL M 282 STRATFORD UPON AVON CC 01:11:42.60 9,62 LUNGO
287 2621 GALLENO STEFANO M 283 ASD SUPERBA PROGETTO BICI 01:11:43.50 9,62 LUNGO
288 517 BRUNO ANTONIO GIOVANNI M 284 RODMAN AZIMUT SQUADRA CORSE 01:11:47.40 9,61 LUNGO
289 2090 NELANY JAMIE M 285 INDIVIDUALE 01:11:47.40 9,61 LUNGO
290 723 WILDE IAN M 286 INDIVIDUALE 01:11:48.90 9,61 LUNGO
291 886 KLAUSEN KASPER EMIL M 287 INDIVIDUALE 01:11:51.20 9,6 LUNGO
292 774 BREWSTER ANDREW M 288 INDIVIDUALE 01:11:53.90 9,6 LUNGO
293 440 BAYER THOMAS M 289 CICLISMO SPORTVEREIN SERRATUS 01:11:54.70 9,6 LUNGO
294 3277 DELL'ORO RENATO M 290 CAMA GROUP POLISPOSRTIVA 01:11:55.20 9,59 LUNGO
295 1084 FARRES ALBERT M 291 INDIVIDUALE 01:11:56.70 9,59 LUNGO
296 1065 AROCA GASPART ORIOL M 292 INDIVIDUALE 01:12:01.60 9,58 LUNGO

Classifica elaborata da www.winningtime.it


SANTINI GRANFONDO STELVIO
CRONOSCALATA MORTIROLO - KM 11,50

Posiz Pett Cognome Sesso PosSex Società Tempo Media Percorso


297 909 LUENGO POL M 293 CC SPRINT BIKE 01:12:03.00 9,58 LUNGO
298 1924 DAVID ROMUALD M 294 VIRINE TEAM CYCLISTE 01:12:05.20 9,57 LUNGO
299 2360 CERRO AMORES JORGE M 295 CLUB TRIATLO ANDORRA 01:12:05.30 9,57 LUNGO
300 147 POLLAK WOLFGANG M 296 INDIVIDUALE 01:12:05.90 9,57 LUNGO
301 1582 SALAMINA RICCARDO M 297 ASD AVIS MONTICHIARI 01:12:07.10 9,57 LUNGO
302 453 SCACCABAROZZI DANILO PIERO M 298 DT BIANCHI 01:12:13.40 9,55 LUNGO
303 2016 DOST ANDREAS M 299 RSV MOOSBURG 01:12:18.10 9,54 LUNGO
304 878 JENSEN MICHAEL IAN DUELUND M 300 MTB RANDERS - DK 01:12:18.30 9,54 LUNGO
305 1246 WEISS VRONI F 4 SQUADRA CICLISMO COLONIA 01:12:18.40 9,54 LUNGO
306 1382 CORDON COMPAÑ JAVIER M 301 ITV - ICE FOR LIFE 01:12:21.20 9,54 LUNGO
307 231 GARSET STEEN ANKER M 302 RUBY REJSER 01:12:21.90 9,54 LUNGO
308 1034 TOMLINSON ADRIAN M 303 INDIVIDUALE 01:12:21.90 9,54 LUNGO
309 2599 GOLAN HAGAI M 304 ZONE 3 01:12:22.70 9,53 LUNGO
310 523 PEDERSEN MORTEN JUUL M 305 SCRMOTION 01:12:24.10 9,53 LUNGO
311 2476 STEFFEN URS M 306 FINISHERS WINTERTHUR 01:12:27.40 9,52 LUNGO
312 1055 WILLIAMS FREDDIE M 307 INDIVIDUALE 01:12:28.30 9,52 LUNGO
313 2177 HAMMERER CHRIS M 308 STRIZZI RECORDS 01:12:28.40 9,52 LUNGO
314 3270 TONIATTI CANDIDO M 309 INDIVIDUALE 01:12:31.10 9,52 LUNGO
315 2194 NOS BOTIA JAVIER M 310 C.C. RATPENAT 01:12:32.90 9,51 LUNGO
316 477 MOSTI DARIO M 311 HUTR 01:12:36.60 9,5 LUNGO
317 793 CASTRO LOPEZ AGUSTIN M 312 C.C. OS ESFOLA ARROS 01:12:40.70 9,5 LUNGO
318 2272 DENTA BENJAMIN FINN M 313 BIKE BOYS 01:12:41.90 9,49 LUNGO
319 2657 LARSEN MORTEN M 314 INDIVIDUALE 01:12:44.50 9,49 LUNGO
320 2041 ENEMARK LEON M 315 SCRMOTION 01:12:45.10 9,48 LUNGO
321 653 PINCHETTI PAOLO M 316 INDIVIDUALE 01:12:49.90 9,48 LUNGO
322 2012 ASLAN AHMET CAN M 317 INDIVIDUALE 01:12:50.10 9,47 LUNGO
323 2612 GALLO DANIELE M 318 GIGABIKE 01:12:51.30 9,47 LUNGO
324 66 PESENTI STEFANO M 319 CRAL POSTE LOMBARDIA 1 01:12:58.30 9,46 LUNGO
325 2581 YAVUZ KAGAN M 320 INDIVIDUALE 01:12:59.40 9,45 LUNGO
326 1089 FRANZREB FLORIAN M 321 INDIVIDUALE 01:13:00.80 9,45 LUNGO
327 3222 MONTI MIRCO M 322 GS CICLI GAUDENZI 01:13:01.60 9,45 LUNGO
328 1876 MERIGO LORENZO M 323 ASD NEWSCICLISMO.COM 01:13:03.20 9,45 LUNGO
329 1303 BERRET LIONEL M 324 INDIVIDUALE 01:13:04.90 9,44 LUNGO
330 1376 VINDISAR BLAZ M 325 KAMEN KOCIPER 01:13:05.60 9,44 LUNGO
331 558 CARULLI GERARDO M 326 UISP COMITATO TERRITORIALE PESCARA 01:13:06.10 9,44 LUNGO
332 1396 RAMACCI ALESSANDRO M 327 ASD CICLI FATATO 01:13:09.30 9,43 LUNGO
333 323 LIBERGREN LASSEN PEDER M 328 INDIVIDUALE 01:13:10.60 9,43 LUNGO

Classifica elaborata da www.winningtime.it


SANTINI GRANFONDO STELVIO
CRONOSCALATA MORTIROLO - KM 11,50

Posiz Pett Cognome Sesso PosSex Società Tempo Media Percorso


334 3283 POZZI DIMITRI M 329 US BORMIESE 01:13:11.60 9,43 LUNGO
335 2697 VASCOTTO CRISTIAN M 330 ASD FEDERCLUB TRIESTE - TECNOEDILE 01:13:17.80 9,42 LUNGO
336 1592 MELE SILVO M 331 KAMEN KOCIPER 01:13:18.90 9,41 LUNGO
337 1468 LARSEN KIM M 332 INDIVIDUALE 01:13:20.00 9,41 LUNGO
338 1243 VAN GROOTEL HANS M 333 INDIVIDUALE 01:13:20.60 9,41 LUNGO
339 647 MÜNCH THOMAS M 334 INDIVIDUALE 01:13:25.10 9,4 LUNGO
340 525 TIZZANINI GIACOMO M 335 SESSANTALLORA ASD 01:13:25.60 9,4 LUNGO
341 1615 FISCHER SEBASTIAN M 336 INDIVIDUALE 01:13:28.00 9,39 LUNGO
342 224 ASDAHL PETER HAUBJERG M 337 RUBY REJSER 01:13:28.30 9,39 LUNGO
343 1836 ASTORI MARCO M 338 ASD AVIS PAVIA G.C. 01:13:28.40 9,39 LUNGO
344 1918 ACANFORA PAOLO M 339 ASD ZEROTRENTA TRIATHLON 01:13:33.70 9,38 LUNGO
345 818 DI CRESCENZO MARCO M 340 SUPERBA PROGETTO BICI 01:13:34.60 9,38 LUNGO
346 16 POZZI CRISTIAN M 341 US BORMIESE 01:13:36.60 9,38 LUNGO
347 883 KERSTING JAN M 342 MRRC MÜNCHEN 01:13:37.60 9,37 LUNGO
348 1933 MALAKAUSKAS ALEKSANDRAS M 343 TOP TEAM CYCLING 01:13:38.10 9,37 LUNGO
349 1525 KLEINKNECHT RUPERT M 344 INDIVIDUALE 01:13:38.90 9,37 LUNGO
350 910 LUIGI MORRILLO M 345 INDIVIDUALE 01:13:40.50 9,37 LUNGO
351 467 BORTOLAMI LUCA M 346 GALBIATI SPORT CICLI ESPOSITO 01:13:40.50 9,37 LUNGO
352 2193 MCLOUGHLIN CIAN M 347 INDIVIDUALE 01:13:40.90 9,37 LUNGO
353 2447 ZANIER GIANNI M 348 SQUADRA CORSE CUSSIGH BIKE 01:13:44.00 9,36 LUNGO
354 343 RAFFEL NILS M 349 INDIVIDUALE 01:13:45.40 9,36 LUNGO
355 1567 MORALES MUÑOZ JONATHAN M 350 CHASCA TEAM 01:13:49.40 9,35 LUNGO
356 2023 PINTO LUIS M 351 INDIVIDUALE 01:13:49.80 9,35 LUNGO
357 1827 MAZZA ALBERTO M 352 ASD TEAM ROSSETTI 01:13:53.10 9,34 LUNGO
358 2614 WESTERMANN PETER M 353 INDIVIDUALE 01:13:54.60 9,34 LUNGO
359 745 BALHAN ALAIN M 354 INDIVIDUALE 01:13:54.90 9,34 LUNGO
360 399 FUSTO CLAUDIO MARIA M 355 ASD IL PEDALE NEL CUORE 01:13:55.10 9,33 LUNGO
361 669 STAREK MARTIN M 356 INDIVIDUALE 01:13:56.00 9,33 LUNGO
362 437 WHITTAKER HOWARD M 357 BMW RADSPORT 01:13:56.40 9,33 LUNGO
363 471 RAPISARDI ANTONINO M 358 GS ABELE MARINELLI 01:13:56.40 9,33 LUNGO
364 1913 MALCHI RAZ M 359 VELO CLUB SESTESE 01:13:58.10 9,33 LUNGO
365 958 PEEL DARRELL M 360 VELOCIPEDES 01:14:01.30 9,32 LUNGO
366 1878 PICARD JÉROME M 361 MN BIKE 01:14:05.80 9,31 LUNGO
367 69 PUCCIO SIMONE M 362 G.S.COREBO 01:14:10.10 9,3 LUNGO
368 1263 MORALES CHICO JOSE MANUEL M 363 CC TRES CANTO /HERVOLARIO VALLE DE ORO 01:14:10.30 9,3 LUNGO
369 1110 LEADER TOM M 364 VELOCIPEDES 01:14:10.90 9,3 LUNGO
370 582 BERTELSEN TROELS M 365 INDIVIDUALE 01:14:11.40 9,3 LUNGO

Classifica elaborata da www.winningtime.it


SANTINI GRANFONDO STELVIO
CRONOSCALATA MORTIROLO - KM 11,50

Posiz Pett Cognome Sesso PosSex Società Tempo Media Percorso


371 873 IACOVELLI VITOROCCO M 366 SC CASAMASSIMA-LABICICLETTASTORE.IT 01:14:13.10 9,3 LUNGO
372 2366 IDZIKOWSKI JACEK M 367 INDIVIDUALE 01:14:13.10 9,3 LUNGO
373 1031 TEUFL FELIX M 368 BIKE FRIENDS SALZBURG 01:14:22.30 9,28 LUNGO
374 2527 SALAJ RON M 369 ESC SOCIETA SPORTIVA' DILETTANTISTICA S.R.L. 01:14:22.70 9,28 LUNGO
375 652 PINCHETTI ALESSANDRO M 370 INDIVIDUALE 01:14:25.70 9,27 LUNGO
376 2386 DELEURAN NICOLAI M 371 INDIVIDUALE 01:14:26.40 9,27 LUNGO
377 452 DE BARTOLOMEO GIANLUCA M 372 DT BIANCHI 01:14:27.40 9,27 LUNGO
378 1656 SPYKERMANN MANUEL M 373 TUS KREUZWEINGARTEN-RHEDER 01:14:29.10 9,26 LUNGO
379 1565 DA PONTE MICHELE M 374 CAMIN BIKE TEAM ASD 01:14:30.30 9,26 LUNGO
380 1851 CUTTONE DANIELE SALVATORE M 375 Q.D.B.C. ASD 01:14:33.10 9,26 LUNGO
381 2637 LUPOLI VINCENZO M 376 ASD CICLO TECH 01:14:34.60 9,25 LUNGO
382 1329 BECK MARKUS M 377 RV STURMVOGEL 01:14:35.20 9,25 LUNGO
383 1763 REQUENA ELGUEZABAL GUILLERMO M 378 PULPEIROS 01:14:37.30 9,25 LUNGO
384 1018 STEPHAN JACOBS M 379 INDIVIDUALE 01:14:37.60 9,25 LUNGO
385 2111 O'DONOVAN NOEL M 380 INDIVIDUALE 01:14:38.80 9,25 LUNGO
386 470 COSSI ROBERTO M 381 GROSIO CICLISMO 01:14:41.30 9,24 LUNGO
387 1445 VELAMAZÁN PASAMAR ANDRÉS M 382 INDIVIDUALE 01:14:46.10 9,23 LUNGO
388 2481 ZIEGLER ZIEGLER M 383 TEAM EDELMEISTER 01:14:46.80 9,23 LUNGO
389 1264 MORALES CHICO JUAN CARLOS M 384 INDEPENDIENTE 01:14:49.00 9,22 LUNGO
390 1432 TOPPAZZINI VALTER M 385 UC SANDANIELESI 01:14:50.60 9,22 LUNGO
391 1450 BACCARO STEFANO M 386 GRUPPO CICLISTI CANTALUPO 01:14:50.80 9,22 LUNGO
392 3249 GALLI DANIELE M 387 VANZAVILLA TEAM 01:14:51.40 9,22 LUNGO
393 1147 BABBO BARTOLOMEO M 388 INDIVIDUALE 01:14:54.40 9,21 LUNGO
394 987 ROIG JORDI M 389 MUNTBIKES 01:14:57.10 9,21 LUNGO
395 1830 RAMOS RAMOS WALFRIDO M 390 CC EL CAMPELLO 01:14:59.50 9,2 LUNGO
396 2523 BATHKE MARKUS M 391 RSV MOOSBURG 01:15:00.10 9,2 LUNGO
397 2093 VAN BRAGT ERIK M 392 INDIVIDUALE 01:15:01.10 9,2 LUNGO
398 1709 KRUSE LENNART M 393 INDIVIDUALE 01:15:01.20 9,2 LUNGO
399 1007 SIEGER CHRISTOPHE M 394 INDIVIDUALE 01:15:05.80 9,19 LUNGO
400 806 CONCHINHA JOSÉ JOAQUIM MIRANDA M 395 BIKE RODA LIVRE 01:15:06.70 9,19 LUNGO
401 2576 DIGIACOMO GREGORIO M 396 ASD LONGO RACING TEAM 01:15:09.80 9,18 LUNGO
402 708 HART DAVID M 397 INDIVIDUALE 01:15:11.10 9,18 LUNGO
403 2559 ORLOWSKI ZBIGNIEW M 398 INDIVIDUALE 01:15:11.20 9,18 LUNGO
404 76 PERON MARCO M 399 INDIVIDUALE 01:15:11.30 9,18 LUNGO
405 1874 HATTON PHILIP M 400 HALE VELO 01:15:14.20 9,17 LUNGO
406 874 ILLING SEBASTIAN M 401 SEMPRE IN MOVIMENTO 01:15:16.60 9,17 LUNGO
407 767 BOLIS LEONARDO M 402 INDIVIDUALE 01:15:16.80 9,17 LUNGO

Classifica elaborata da www.winningtime.it


SANTINI GRANFONDO STELVIO
CRONOSCALATA MORTIROLO - KM 11,50

Posiz Pett Cognome Sesso PosSex Società Tempo Media Percorso


408 2627 PLATANIA STEFANO M 403 INDIVIDUALE 01:15:17.10 9,17 LUNGO
409 2010 SOLER TORRADAS JOSEPMARIA M 404 INDIVIDUALE 01:15:22.20 9,16 LUNGO
410 459 THOMSEN KRISTIAN M 405 FREDERICIA FF 01:15:24.90 9,15 LUNGO
411 223 ANDERSSON PER-ERIK ANDERS M 406 RUBY REJSER 01:15:26.70 9,15 LUNGO
412 1279 ARCILA GAVIRIA JORGE IVAN M 407 INDIVIDUALE 01:15:29.10 9,14 LUNGO
413 1415 DONLON PATRICK M 408 INDIVIDUALE 01:15:32.20 9,14 LUNGO
414 1331 BLANCO BENAVIDES JESUS DAVID M 409 INDIVIDUALE 01:15:32.40 9,14 LUNGO
415 1308 DE FAVERI LIVIO M 410 S.C. SOLIGHETTO 1919 01:15:33.60 9,13 LUNGO
416 1638 CASNAOVA MARCO M 411 FAMIGLIA DA CAPRICORNS 01:15:33.70 9,13 LUNGO
417 2624 SOMMER MATHIAS M 412 TEAM ALT ELLER INTET 01:15:36.30 9,13 LUNGO
418 365 GIANOLA MARIO M 413 AS PREMANA 01:15:37.30 9,12 LUNGO
419 1825 MALINO DONALD M 414 ASD JOLLY EUROPRESTIGE 01:15:37.90 9,12 LUNGO
420 1000 SANTOS JOÃO M 415 INDIVIDUALE 01:15:40.10 9,12 LUNGO
421 1546 CICCARONE MARIO M 416 INDIVIDUALE 01:15:40.30 9,12 LUNGO
422 2121 DE FREITAS JEFFERSON LUAN M 417 TEAM EL CORIDOR 01:15:41.50 9,12 LUNGO
423 2348 MASCIA CARLO M 418 ASD RUNNING WORLD TRIESTE 01:15:41.70 9,12 LUNGO
424 95 ACERBIS LUCIANO M 419 FREE BIKE NEMBRO 01:15:44.60 9,11 LUNGO
425 203 SLAMKA JURAJ M 420 INDIVIDUALE 01:15:48.60 9,1 LUNGO
426 2329 JULIEN ODOT M 421 INDIVIDUALE 01:15:49.60 9,1 LUNGO
427 2200 RIEDER SEBASTIAN M 422 TSV BENEDIKTBEUERN 01:15:50.10 9,1 LUNGO
428 2294 RONEY SIMON M 423 INDIVIDUALE 01:15:50.20 9,1 LUNGO
429 1226 JANSEN MARKUS M 424 EPICA CYCLING TEAM 01:15:54.00 9,09 LUNGO
430 2384 TANNER MARCEL M 425 INDIVIDUALE 01:15:54.30 9,09 LUNGO
431 1289 GIRALDO CADAVID OSCAR IVAN M 426 INDIVIDUALE 01:15:57.40 9,08 LUNGO
432 3294 GALLI RICHARD M 427 ASD GALLI BIKE 01:16:02.20 9,07 LUNGO
433 2668 CURCI ANDREA M 428 FREEZONE ASD 01:16:04.40 9,07 LUNGO
434 1171 JUNG MARCUS M 429 INDIVIDUALE 01:16:05.60 9,07 LUNGO
435 1543 CADAVID OROZCO MAURICIO M 430 INDIVIDUALE 01:16:06.20 9,07 LUNGO
436 32 CONFORTOLA ITALO M 431 US BORMIESE 01:16:07.40 9,07 LUNGO
437 127 KUKOVIC JURE M 432 ZIPVIT PROADVENTURE 01:16:07.80 9,07 LUNGO
438 953 OSSWALD FRANK M 433 INDIVIDUALE 01:16:08.40 9,06 LUNGO
439 618 GÖKDERE AHMET M 434 INDIVIDUALE 01:16:08.90 9,06 LUNGO
440 607 DELVENDAHL ALEXANDER M 435 INDIVIDUALE 01:16:12.90 9,06 LUNGO
441 1501 SARDO SALVATORE M 436 GC BINAGO 01:16:17.10 9,05 LUNGO
442 1409 O'HARA JAMES M 437 ISLINGTON CC 01:16:18.30 9,04 LUNGO
443 2704 FERRARIO ALEX M 438 INDIVIDUALE 01:16:19.00 9,04 LUNGO
444 1487 FILIPSKY JAN M 439 INDIVIDUALE 01:16:21.30 9,04 LUNGO

Classifica elaborata da www.winningtime.it


SANTINI GRANFONDO STELVIO
CRONOSCALATA MORTIROLO - KM 11,50

Posiz Pett Cognome Sesso PosSex Società Tempo Media Percorso


445 1646 SCHÖTT JAN M 440 SG LANDENHAUSEN 01:16:22.90 9,04 LUNGO
446 4 ROCCHI PAOLO M 441 ASD PEDALE NEL CUORE 01:16:27.10 9,03 LUNGO
447 86 MOGGIA PAOLO M 442 ASD CERTOSA BRAZZO 01:16:28.60 9,02 LUNGO
448 2550 MATOS ROGÉRIO M 443 CICLOMANIACOS/AAZ 01:16:29.90 9,02 LUNGO
449 71 ROSSI STEFANO M 444 LA ORSI BIKE 01:16:32.10 9,02 LUNGO
450 744 AZZONI MATTEO M 445 TITICI ADVENTURE TEAM 01:16:38.40 9 LUNGO
451 164 CABELLO CARLOS M 446 EROICIANS.CC 01:16:39.50 9 LUNGO
452 1568 PÉTER PÉTER M 447 SZINGO 01:16:42.10 9 LUNGO
453 1083 DOLCI NICOLA M 448 INDIVIDUALE 01:16:45.10 8,99 LUNGO
454 2347 LLEDO BERBEGAL ANTONIO M 449 C.C. CASTALLA 01:16:45.40 8,99 LUNGO
455 2680 JEPPESEN ANDERS M 450 TEAM ALT ELLER INTET 01:16:49.30 8,98 LUNGO
456 1662 GRAF REINHOLD M 451 TEAM GRAF 01:16:51.90 8,98 LUNGO
457 444 BUYVOETS RICHARD M 452 CYCLING TEAM WIELERTOERIST 01:16:53.90 8,97 LUNGO
458 1328 KORZEB MICHAL M 453 INDIVIDUALE 01:16:54.80 8,97 LUNGO
459 564 RIZZA ANDREA M 454 VELO CLUB SESTESE 01:16:55.70 8,97 LUNGO
460 530 SCRIBANO DANIELE M 455 TEAM DE ROSA SANTINI 01:16:57.10 8,97 LUNGO
461 946 NORDENTOFT NIELS OTTO M 456 INDIVIDUALE 01:17:01.80 8,96 LUNGO
462 318 KNUDSEN MORTEN F 5 INDIVIDUALE 01:17:02.10 8,96 LUNGO
463 2277 LAMELA FORMOSO FORMOSO M 457 OS ESFOLA ARROS 01:17:05.10 8,95 LUNGO
464 2169 BARRETT BARRETT M 458 BSPOKE360 01:17:06.60 8,95 LUNGO
465 1954 DOMMERBY JAN M 459 DAHVID 01:17:10.10 8,94 LUNGO
466 2318 CARLINI FRANCESCO M 460 TEAM VALLONE 01:17:10.80 8,94 LUNGO
467 1204 TOFT-NIELSEN SOREN M 461 INDIVIDUALE 01:17:11.60 8,94 LUNGO
468 1373 SPORK EMIL M 462 INDIVIDUALE 01:17:12.30 8,94 LUNGO
469 1201 STRELZIG HEIKO M 463 INDIVIDUALE 01:17:14.80 8,93 LUNGO
470 696 RESTA FRANCO M 464 G.S. CICLISTI GRASSINA 01:17:17.30 8,93 LUNGO
471 1044 VAN BOMMEL ERIK M 465 CONEY HALL CYCLE WORKS 01:17:17.40 8,93 LUNGO
472 1655 MOOSER FABIAN M 466 GETOUTSIDE 01:17:19.10 8,92 LUNGO
473 989 ROMEO NUÑEZ DAVID M 467 C.C ESPRINT BIKE 01:17:19.40 8,92 LUNGO
474 2181 SICARI MARCO M 468 INDIVIDUALE 01:17:19.60 8,92 LUNGO
475 1842 KAUFMANN CHRISTIAN M 469 MONT VENTOUX INTERNATIONAL CYCLING CLUB 01:17:20.70 8,92 LUNGO
476 54 GASPERI MARCO M 470 US BORMIESE 01:17:23.20 8,92 LUNGO
477 2404 TOPOREK SZYMON M 471 BEMBNISTA TRANSPORT 01:17:25.30 8,91 LUNGO
478 528 MUSCHI TAZIO M 472 SWISS CYCLING 01:17:28.50 8,91 LUNGO
479 990 ROMIJN PAUL M 473 WIELKLEVER 01:17:29.30 8,91 LUNGO
480 843 GAVIDIA CÁMARA RAMSÉS M 474 INDIVIDUALE 01:17:30.80 8,9 LUNGO
481 257 PARMO STEEN M 475 RUBY REJSER 01:17:31.90 8,9 LUNGO

Classifica elaborata da www.winningtime.it


SANTINI GRANFONDO STELVIO
CRONOSCALATA MORTIROLO - KM 11,50

Posiz Pett Cognome Sesso PosSex Società Tempo Media Percorso


482 3230 RENDINA MORENO M 476 VAM RACE ASD 01:17:33.50 8,9 LUNGO
483 633 KÖRÖSSY PETER M 477 INDIVIDUALE 01:17:33.50 8,9 LUNGO
484 2553 MARZANO RAFFAELE M 478 ASD ADRIANO DE ZAN 01:17:33.80 8,9 LUNGO
485 2510 SARID OPHIR M 479 DYNAMO RACING 01:17:34.30 8,9 LUNGO
486 1718 SIMONSEN JAKOB HUSTED M 480 INDIVIDUALE 01:17:35.30 8,89 LUNGO
487 3285 FERRER ALBERT GALICIA M 481 MUNT BIKES CLUB 01:17:35.60 8,89 LUNGO
488 45 ROMANI NICOLA M 482 US BORMIESE 01:17:37.00 8,89 LUNGO
489 2267 ŠIMALCÍK LUBOMÍR M 483 INDIVIDUALE 01:17:38.10 8,89 LUNGO
490 711 MATHISEN EIRIK NESTAS M 484 RCC 01:17:38.70 8,89 LUNGO
491 1667 GÜNEY SINAN CEM M 485 FESTO BSG 01:17:40.50 8,88 LUNGO
492 2604 VAN ZIJL DENNIS M 486 INDIVIDUALE 01:17:40.60 8,88 LUNGO
493 1041 VALLING TOMAS M 487 SCC 01:17:43.30 8,88 LUNGO
494 103 TRAINI PIETRO M 488 OESTARA CYCLING TEAM ASD 01:17:45.70 8,87 LUNGO
495 932 MORENO JORGE M 489 C.C SPRINT BIKE 01:17:46.30 8,87 LUNGO
496 2004 GAMMELLA MARCO M 490 U.S. SANGIORGESE ASDILETTANTISTICA 01:17:47.60 8,87 LUNGO
497 1804 RANCATI MARCO M 491 INDIVIDUALE 01:17:50.50 8,87 LUNGO
498 373 BLASCOVICH CRISTIAN M 492 AD PEDALE TREBASELEGHE 01:17:51.20 8,86 LUNGO
499 2343 D’INCECCO MARIO M 493 ASD CANTURINO 1902 01:17:51.80 8,86 LUNGO
500 2480 WICHMANN MARIAN M 494 TEAM EDELMEISTER 01:17:54.40 8,86 LUNGO
501 1095 GRAF ALEXANDER M 495 SURF AND BIKE HÜTTE PEIßENBERG 01:17:55.60 8,86 LUNGO
502 1531 BARNA DERÉKI M 496 AMATEUR 01:17:56.80 8,85 LUNGO
503 2465 DEWILDE FRANÇOIS M 497 INDIVIDUALE 01:18:01.30 8,84 LUNGO
504 430 DONGHI SIMONE M 498 ASD VEROCA 01:18:04.10 8,84 LUNGO
505 1291 JEPPESEN MIKKEL M 499 AMAGER CYCLE RING 01:18:04.30 8,84 LUNGO
506 922 MEYER AARON M 500 NYON WHEELIES 01:18:06.60 8,83 LUNGO
507 939 NARDIN LUCA M 501 DELIZIA BIKEPACKING TEAM CASARSA 01:18:08.10 8,83 LUNGO
508 1558 TARNAI BENCE M 502 INDIVIDUALE 01:18:09.80 8,83 LUNGO
509 2663 APPRIOU ROMAIN M 503 INDIVIDUALE 01:18:11.30 8,83 LUNGO
510 494 PEÑA VALDIVIA ERLANTZ M 504 MRRC MÜNCHEN 01:18:12.10 8,82 LUNGO
511 2079 PELGRÖM ANDRÉ M 505 INDIVIDUALE 01:18:12.40 8,82 LUNGO
512 1392 MAULINI CLAUDIO M 506 ASD GRUPPO CICLSTCO '95 NOVARA 01:18:12.80 8,82 LUNGO
513 1349 SCHAF SEBASTIAN M 507 SOPREMA TEAM TSV MANNHEIM 01:18:13.80 8,82 LUNGO
514 368 BIANCHI DAVIDE M 508 ASD RAMPI CLUB BRIANZA 01:18:14.00 8,82 LUNGO
515 1733 CANTU CARDENAS ARTURO M 509 INDIVIDUALE 01:18:19.30 8,81 LUNGO
516 1002 SANTOS MARCOS M 510 CCBTT DE ELVAS 01:18:23.40 8,8 LUNGO
517 1927 LIMONTA EMILIO M 511 ASD CELLAR TEAM TREDICI 01:18:24.10 8,8 LUNGO
518 590 BRENSING CHRISTIAN M 512 INDIVIDUALE 01:18:26.00 8,8 LUNGO

Classifica elaborata da www.winningtime.it


SANTINI GRANFONDO STELVIO
CRONOSCALATA MORTIROLO - KM 11,50

Posiz Pett Cognome Sesso PosSex Società Tempo Media Percorso


519 454 FUCHS STEPHAN M 513 DYNAMO BORTSHAUSEN 01:18:28.30 8,79 LUNGO
520 1849 BECKER NICK M 514 DYNAMO BORTSHAUSEN 01:18:29.80 8,79 LUNGO
521 1257 FINAN JAMES M 515 ZUCARITAS 01:18:32.50 8,79 LUNGO
522 1991 SAILER CLARA F 6 HSGAZELLEN 01:18:36.20 8,78 LUNGO
523 506 JURADO XAVI M 516 RAT PENAT 01:18:43.80 8,77 LUNGO
524 2150 LANFRANCHI EDOARDO M 517 ASD GROSIO CICLISMO 01:18:44.50 8,76 LUNGO
525 293 DIGMAN KLAUS M 518 BIKEBODYS 01:18:44.80 8,76 LUNGO
526 924 MOLERO TORRES FERMIN M 519 INDIVIDUALE 01:18:44.90 8,76 LUNGO
527 2063 VENTURA ALFIO M 520 IRON BIKE PATERNO' 01:18:45.20 8,76 LUNGO
528 1880 RUSSO GIOVANNI M 521 MARANGIOLO TARANTO 01:18:52.20 8,75 LUNGO
529 631 KNOBLAUCH CLAUS M 522 INDIVIDUALE 01:18:52.50 8,75 LUNGO
530 1167 GORSEK TINA F 7 EPICA CYCLING TEAM 01:18:53.50 8,75 LUNGO
531 1687 LEE GARY M 523 MR 01:18:54.00 8,75 LUNGO
532 2584 BAYRHOF OTTO-JONAS M 524 INDIVIDUALE 01:18:54.30 8,75 LUNGO
533 351 TORP JACOBSEN MADS M 525 INDIVIDUALE 01:18:59.40 8,74 LUNGO
534 2741 FRANZ MICHEL M 526 INDIVIDUALE 01:19:01.60 8,73 LUNGO
535 754 BENTZEN HENRIK HALBY M 527 3650CYCLING 01:19:03.00 8,73 LUNGO
536 2639 RANUCCI RINALDO M 528 ASD CICLO TECH 01:19:03.30 8,73 LUNGO
537 2535 SØRENSEN PER M 529 INDIVIDUALE 01:19:04.70 8,73 LUNGO
538 340 PANUM JENSEN ANDERS M 530 INDIVIDUALE 01:19:10.50 8,72 LUNGO
539 1074 CHEBOTAROV ANDRII M 531 SOFT SOFA CC 01:19:14.10 8,71 LUNGO
540 1563 ASENSIO MIGUEL M 532 INDIVIDUALE 01:19:14.80 8,71 LUNGO
541 1449 HERVÉ GUILLARD M 533 INDIVIDUALE 01:19:15.50 8,71 LUNGO
542 1332 BLANCO BENAVIDES RAFAEL ALEJANDRO M 534 INDIVIDUALE 01:19:15.60 8,71 LUNGO
543 1649 DE GROOT GERBEN M 535 INDIVIDUALE 01:19:16.00 8,7 LUNGO
544 2471 VELÁSQUEZ RODRIGO M 536 ZUCARITAS 01:19:16.40 8,7 LUNGO
545 556 DIMITRIO NICOLA M 537 UC PREGNANA TEAM SCOUT ASD 01:19:18.90 8,7 LUNGO
546 1022 SUBIRACHS PADILLA PEDRO M 538 C.C SPRINT BIKE 01:19:19.20 8,7 LUNGO
547 2311 PADRES ANGELATS FRANCESC M 539 INDIVIDUALE 01:19:19.50 8,7 LUNGO
548 2310 MONDEJAR OLIVERAS IVAN M 540 INDIVIDUALE 01:19:19.80 8,7 LUNGO
549 1128 SCHLEY THOMAS M 541 SC HOYERSWERDA 01:19:20.10 8,7 LUNGO
550 982 RINALDI FABIO M 542 ASD RUOTA A RUOTA 01:19:21.70 8,7 LUNGO
551 2543 GIUDICI LUCA DANTE M 543 INDIVIDUALE 01:19:26.70 8,69 LUNGO
552 1522 CARUSO GAETANO M 544 ASD CITTA' DI MISTERBIANCO 01:19:27.20 8,68 LUNGO
553 3292 MESCHI PALADINO M 545 TEAM CHRONO 01:19:27.60 8,68 LUNGO
554 2444 TILFORD DAVID M 546 FEATHERSTONE ROAD CLUB 01:19:29.80 8,68 LUNGO
555 1817 BELEC MATEJ M 547 INDIVIDUALE 01:19:30.50 8,68 LUNGO

Classifica elaborata da www.winningtime.it


SANTINI GRANFONDO STELVIO
CRONOSCALATA MORTIROLO - KM 11,50

Posiz Pett Cognome Sesso PosSex Società Tempo Media Percorso


556 1304 BISCARO DANIELE M 548 S.C. SOLIGHETTO 1919 01:19:30.70 8,68 LUNGO
557 1720 BERSANI GIACOMO M 549 MACALLESI ASD 01:19:31.70 8,68 LUNGO
558 2681 LEGHISSA SILVANO M 550 ASDFEDERCLUBTRIESTE-TECNOEDILE 01:19:32.30 8,68 LUNGO
559 2108 VALENTINI GIAN GIACOMO M 551 INDIVIDUALE 01:19:33.00 8,67 LUNGO
560 226 BYGBALLE MADS M 552 RUBY REJSER 01:19:34.00 8,67 LUNGO
561 1239 SOEBY CARSTEN M 553 TOFT IT CYCLING 01:19:38.90 8,66 LUNGO
562 1063 ADOLPHS ANDREAS M 554 INDIVIDUALE 01:19:39.90 8,66 LUNGO
563 1521 CANALES SANCHEZ DAVID M 555 MUNTBIKES 01:19:41.80 8,66 LUNGO
564 89 CRISTONI MARCO ERNESTO M 556 ASD GALLI BIKE 01:19:43.70 8,66 LUNGO
565 682 WILLIAMS RICHARD M 557 INDIVIDUALE 01:19:44.10 8,65 LUNGO
566 1043 VAN AERT JOS M 558 INDIVIDUALE 01:19:45.90 8,65 LUNGO
567 640 MARTINEZ ROMERO ANA F 8 INDIVIDUALE 01:19:47.00 8,65 LUNGO
568 315 JUNKER THOMAS M 559 INDIVIDUALE 01:19:51.50 8,64 LUNGO
569 2435 QUAGLIA DAMIANO M 560 SQUADRA CORSE CUSSIGH BIKE 01:19:58.70 8,63 LUNGO
570 2419 MILORO FABIO M 561 ASD BICI & BIKE 01:20:01.90 8,62 LUNGO
571 1975 MCBRIDE MCBRIDE M 562 INDIVIDUALE 01:20:02.50 8,62 LUNGO
572 928 MONTOJO JUAN M 563 SAN LORENZO 01:20:02.90 8,62 LUNGO
573 1402 VAN LAER PETER M 564 GRAN FONDO TEAM QUADRIFOGLIO 01:20:03.40 8,62 LUNGO
574 370 BROWN JOEL M 565 ABC PURE 01:20:04.00 8,62 LUNGO
575 1471 MARCHESE ROBERTO M 566 GC BINAGO 01:20:04.90 8,62 LUNGO
576 2130 HARGREAVES ANDREW M 567 TEAM MARTYS 01:20:05.20 8,62 LUNGO
577 1928 LOTZ MARIO M 568 INDIVIDUALE 01:20:06.20 8,61 LUNGO
578 485 ERMAN GASPER M 569 KD ALPE 01:20:10.30 8,61 LUNGO
579 1642 MÖLLER MARCEL M 570 SG LANDENHAUSEN 01:20:12.10 8,6 LUNGO
580 2333 MICUCCI MARIO M 571 ASD COPPA CYCLING TEAM 01:20:15.80 8,6 LUNGO
581 1630 GIORGIO ALESSANDRO M 572 FUNTOS BIKE 01:20:16.00 8,6 LUNGO
582 3 BEDIN EUGENIO M 573 LAMACART CYCLIING TIME 01:20:19.10 8,59 LUNGO
583 423 MONTI FAUSTO M 574 ASD TEAM ALL4CYCLING-BDC 01:20:20.30 8,59 LUNGO
584 1528 LEE SU YOUN M 575 INDIVIDUALE 01:20:21.50 8,59 LUNGO
585 1075 CHRISTIAN BIÉMAR M 576 INDIVIDUALE 01:20:24.40 8,58 LUNGO
586 815 DE MAURO ANDREA M 577 ASD MTB CITTÀ DEGLI IMPERIALI 01:20:24.90 8,58 LUNGO
587 2235 KRUSE SØNDERGAARD MORTEN M 578 INDIVIDUALE 01:20:27.50 8,58 LUNGO
588 1705 ALVAREZ RICARDO M 579 URANO 01:20:27.60 8,58 LUNGO
589 2546 HAUER SØREN M 580 INDIVIDUALE 01:20:28.30 8,57 LUNGO
590 1120 POINTER DAVON M 581 VELOCIPEDES 01:20:31.00 8,57 LUNGO
591 1420 JOHNSON DAN M 582 INDIVIDUALE 01:20:31.70 8,57 LUNGO
592 3271 HUHTISAARI TIMO MATIAS M 583 INDIVIDUALE 01:20:35.20 8,56 LUNGO

Classifica elaborata da www.winningtime.it


SANTINI GRANFONDO STELVIO
CRONOSCALATA MORTIROLO - KM 11,50

Posiz Pett Cognome Sesso PosSex Società Tempo Media Percorso


593 2039 RICHTER HELGE M 584 H.O.T. 01:20:38.60 8,56 LUNGO
594 141 LEATHER DAN M 585 INDIVIDUALE 01:20:38.60 8,56 LUNGO
595 94 STACHURA ROMAN M 586 FINISHERS WINTERTHUR 01:20:39.80 8,56 LUNGO
596 899 LEENEN BEN M 587 WIELKLEVER 01:20:42.60 8,55 LUNGO
597 2642 TRUE ALAN M 588 INDIVIDUALE 01:20:43.80 8,55 LUNGO
598 1368 MORILLAS MIKEL M 589 XIMAURPIL 01:20:45.00 8,54 LUNGO
599 1146 ARRUABARRENA JAUREGI IBAI M 590 INDIVIDUALE 01:20:45.30 8,54 LUNGO
600 769 BORMOLINI MATTEO M 591 SPORTING CLUB LIVIGNO 01:20:46.60 8,54 LUNGO
601 1157 CARLI ALESSIO M 592 GS PEDALE PIETRASANTINO 01:20:47.80 8,54 LUNGO
602 1539 VANWELKENHUYZEN PATRICK M 593 INDIVIDUALE 01:20:48.60 8,54 LUNGO
603 2512 LOLI ANDREA M 594 ASD CICLI FATATO 01:20:48.60 8,54 LUNGO
604 1931 BELLINI DANIEL M 595 INDIVIDUALE 01:20:50.00 8,54 LUNGO
605 2033 NABE-NIELSEN KRISTIAN M 596 INDIVIDUALE 01:20:51.00 8,53 LUNGO
606 1461 MANDELLI JACOPO FRANCO M 597 INDIVIDUALE 01:20:51.00 8,53 LUNGO
607 659 ROMERO HOLMAN M 598 INDIVIDUALE 01:20:51.20 8,53 LUNGO
608 2120 DE BARBIERI STEFANO M 599 ASD TEAM EVO PROJECT 01:20:54.90 8,53 LUNGO
609 559 MIRABELLI GIOVANNI M 600 UISP MILANO 01:20:56.30 8,53 LUNGO
610 1788 KORPERSHOEK MICHEL M 601 TEAM LIMBURG 01:21:01.80 8,52 LUNGO
611 1938 BULGHERONI MICHELE M 602 BICITIME RACING TEAM ASD 01:21:02.80 8,52 LUNGO
612 510 DEVELI MIKAIL M 603 RG UNI HAMBURG 01:21:04.90 8,51 LUNGO
613 2332 CSORDAS CSORDAS M 604 ALPINE GOAT 01:21:06.50 8,51 LUNGO
614 1564 BARONI FRANCESCO M 605 ASD BIKE CARPIANO 01:21:06.60 8,51 LUNGO
615 2060 PALLÀS FONT JOAN M 606 CLUB ESPORTIU TRIATLO CUBE 01:21:10.50 8,5 LUNGO
616 1197 SPARREBOOM RAYMOND M 607 INDIVIDUALE 01:21:11.20 8,5 LUNGO
617 2240 SCARDOVI CLAUDIO M 608 INDIVIDUALE 01:21:15.90 8,49 LUNGO
618 2551 SEKRECKI MARIUSZ M 609 INDIVIDUALE 01:21:17.10 8,49 LUNGO
619 1512 OBWEGESER HELMUT M 610 MTB CLUB MONTAFON 01:21:17.30 8,49 LUNGO
620 128 BANNWART CHRISTIAN M 611 INDIVIDUALE 01:21:17.50 8,49 LUNGO
621 1375 SZNERCH NATHAN M 612 GRAHAM WEIGH 01:21:22.30 8,48 LUNGO
622 153 ZAMBONIN LUIGI M 613 INDIVIDUALE 01:21:24.80 8,48 LUNGO
623 2279 PARRA TORREIRA FERNANDO M 614 INDIVIDUALE 01:21:27.10 8,47 LUNGO
624 1102 JOHNE BENJAMIN M 615 INDIVIDUALE 01:21:32.80 8,46 LUNGO
625 1472 MONTMANY MALAGELADA MALAGELADA M 616 CLUB CICLISTA MUNTBIKES 01:21:32.90 8,46 LUNGO
626 2161 HAMMOND NEILL M 617 INDIE BIKE 01:21:33.80 8,46 LUNGO
627 412 PAVAN MAURO M 618 ASD NEW TEAM 01:21:35.90 8,46 LUNGO
628 1025 SZKLARCZYK WOJCIECH M 619 INDIVIDUALE 01:21:37.50 8,45 LUNGO
629 2651 TRINCAT FRANCIS M 620 INDIVIDUALE 01:21:38.30 8,45 LUNGO

Classifica elaborata da www.winningtime.it


SANTINI GRANFONDO STELVIO
CRONOSCALATA MORTIROLO - KM 11,50

Posiz Pett Cognome Sesso PosSex Società Tempo Media Percorso


630 364 MAZZA NAZZARENO M 621 IL PEDALE NEL CUORE 01:21:38.50 8,45 LUNGO
631 2307 CIVELLI RAFFAELE M 622 INDIVIDUALE 01:21:43.80 8,44 LUNGO
632 2537 BIANCHI ALESSANDRO M 623 INDIVIDUALE 01:21:45.80 8,44 LUNGO
633 2521 RUECKER FABIAN M 624 INDIVIDUALE 01:21:46.40 8,44 LUNGO
634 2636 JØRGENSEN ERIK M 625 INDIVIDUALE 01:21:46.80 8,44 LUNGO
635 2451 LUSH COSMO M 626 LONDON DYNAMO 01:21:47.80 8,44 LUNGO
636 1949 BRUEHLMANN BERNHARD M 627 INDIVIDUALE 01:21:48.50 8,44 LUNGO
637 1653 HENRICH TIMO M 628 #RIDEPUNKX POWERED BY DRAHTESEL-LÜTZELBACH.DE 01:21:50.00 8,43 LUNGO
638 2607 LIBORIUSSEN FRANDS M 629 TEAM ODDER 01:21:50.90 8,43 LUNGO
639 263 RASMUSSEN MIKAEL M 630 RUBY REJSER 01:21:52.10 8,43 LUNGO
640 2566 MERICO UGO M 631 ASD ADRIANO DE ZAN 01:21:54.70 8,42 LUNGO
641 1293 MEMBRIVE JAUME M 632 CUBE MANRESA 01:21:55.70 8,42 LUNGO
642 1952 CISOWSKI ROMAN M 633 NA PAZURKI 01:21:56.00 8,42 LUNGO
643 853 GONZÁLEZ JOSÉ MIGUEL M 634 INDIVIDUALE 01:21:56.50 8,42 LUNGO
644 145 MENTASTI ANDREA M 635 INDIVIDUALE 01:21:58.50 8,42 LUNGO
645 2008 PASZKIEWICZ BOGUMIL M 636 NA PAZURKI 01:21:58.80 8,42 LUNGO
646 1812 STARREMANS MARC M 637 TEAM LIMBURG 01:22:03.50 8,41 LUNGO
647 308 ERLANDSEN BENT M 638 INDIVIDUALE 01:22:06.60 8,4 LUNGO
648 28 CANCLINI ANTONIO M 639 US BORMIESE 01:22:07.60 8,4 LUNGO
649 2137 CASSESE LIVIO M 640 UNIONE CICLISTI LIDO 01:22:08.40 8,4 LUNGO
650 1313 KOPECNY ROMAN M 641 KSV BAUNATAL 01:22:08.70 8,4 LUNGO
651 2633 ORLANDI STEFANO M 642 INDIVIDUALE 01:22:09.50 8,4 LUNGO
652 780 BÜTTNER TINA F 9 #RIDEPUNKX POWERED BY DRAHTESEL-LÜTZELBACH.DE 01:22:11.60 8,4 LUNGO
653 1234 MIGUEL JAIME M 643 ZUCARITAS ES 01:22:11.80 8,4 LUNGO
654 1741 SHAH AKHIL M 644 INDIVIDUALE 01:22:14.00 8,39 LUNGO
655 1288 GIRALDO CADAVID JAIRO ALBERTO M 645 INDIVIDUALE 01:22:14.40 8,39 LUNGO
656 731 ALVAREZ MARC M 646 TEAM MUNTBIKES MOTORPRIM 01:22:14.40 8,39 LUNGO
657 2454 BIGEARD PATRICE M 647 TRIATHLON LANEUVEVILLE DEVANT NANCY 01:22:16.10 8,39 LUNGO
658 1993 STEINKAMP MICHAEL M 648 INDIVIDUALE 01:22:16.80 8,39 LUNGO
659 2228 APPLETON RICHARD M 649 RICHMOND PARK VELO 01:22:18.20 8,38 LUNGO
660 1616 FUMEY BASTIEN M 650 BOURVIL VÉLO CLUB 01:22:18.70 8,38 LUNGO
661 1657 WOHLFENDER PATRICK M 651 INDIVIDUALE 01:22:19.20 8,38 LUNGO
662 2241 BAÑOS LUIS VICTOR M 652 BICICLETASCHINQUENA_RACINGTEAM 01:22:20.50 8,38 LUNGO
663 797 CECCHETTI LUCA M 653 INDIVIDUALE 01:22:21.30 8,38 LUNGO
664 1626 VALENTINI GIAN MARIA M 654 INDIVIDUALE 01:22:21.80 8,38 LUNGO
665 1027 TASSELLI FEDERICO M 655 SAN PATRIZIO ASD 01:22:22.00 8,38 LUNGO
666 636 KURZ CHARLY M 656 INDIVIDUALE 01:22:22.10 8,38 LUNGO

Classifica elaborata da www.winningtime.it


SANTINI GRANFONDO STELVIO
CRONOSCALATA MORTIROLO - KM 11,50

Posiz Pett Cognome Sesso PosSex Società Tempo Media Percorso


667 1164 FRANK HERBERT M 657 TUS KREUZWEINGARTEN 01:22:23.50 8,38 LUNGO
668 2224 BLÖCHINGER NIKLAS M 658 TRI-TEAM FRANKENALB 01:22:23.50 8,38 LUNGO
669 309 FALDEN JAN M 659 INDIVIDUALE 01:22:24.30 8,37 LUNGO
670 1038 TROELS HØYBYE GUSTAV M 660 BIG GUYS ON SMALL RINGS 01:22:24.50 8,37 LUNGO
671 1421 LANZILOTTI VITTORIO M 661 ASD CARBINIA BIKE CAROVIGNO 01:22:27.00 8,37 LUNGO
672 393 BRUNETTI MAURIZIO M 662 ASD GS AVIS GUALDO TADINO 01:22:27.30 8,37 LUNGO
673 165 PINTADO ENRIC M 663 TRCUBE MANRESA 01:22:32.30 8,36 LUNGO
674 2223 BENGESSER THOMAS M 664 RIESER KRAFTWERK 01:22:33.30 8,36 LUNGO
675 2227 SINGER NICO M 665 INDIVIDUALE 01:22:36.30 8,35 LUNGO
676 801 CLAXTON CHRIS M 666 INDIVIDUALE 01:22:37.30 8,35 LUNGO
677 2558 ERBEL ANDRZEJ M 667 ZBOZOWA 21 KIELCE 01:22:38.80 8,35 LUNGO
678 2609 SALVATORE ALEX M 668 SPEED WHEEL 01:22:42.30 8,34 LUNGO
679 1176 LOVARI LUCA M 669 GS POPPI ASD 01:22:45.00 8,34 LUNGO
680 1979 MONZO VINACHES JOSE LUIS M 670 BMJ 01:22:50.50 8,33 LUNGO
681 44 REZZOLI LUCA M 671 US BORMIESE 01:22:52.30 8,33 LUNGO
682 2283 CATURELLI ALBERTO M 672 ASD FREE BIKERS PEDALE FOLLONICHESE 01:22:52.60 8,33 LUNGO
683 1192 ROSELLI CLAUDIO M 673 GS POPPI ASD 01:22:57.00 8,32 LUNGO
684 1296 PARLANTI LUCIANO M 674 INDIVIDUALE 01:22:57.10 8,32 LUNGO
685 2727 TRAN DUC M 675 INDIVIDUALE 01:22:57.30 8,32 LUNGO
686 2025 VITORINO CARLOS M 676 INDIVIDUALE 01:23:00.00 8,31 LUNGO
687 2211 FRUERGAARD VICTOR M 677 PROLOG CC 01:23:02.40 8,31 LUNGO
688 425 PEGORARO MASSIMILIANO M 678 ASD TEAM MARVILLE 01:23:02.50 8,31 LUNGO
689 977 RAVN LEIF M 679 HOG CK 01:23:03.20 8,31 LUNGO
690 997 SANDAU DAN HEIBERG M 680 INDIVIDUALE 01:23:03.80 8,31 LUNGO
691 1440 KUMPF ANDREAS M 681 SOPREMA TEAM TSV MANNHEIM 01:23:04.10 8,31 LUNGO
692 2342 STÉPHANE BROCHOT M 682 GFNY MONT VENTOUX 01:23:04.20 8,31 LUNGO
693 991 RONCALLI ANDREA M 683 INDIVIDUALE 01:23:07.10 8,3 LUNGO
694 2569 CARDAIOLI PAOLO M 684 PETRARCA BIKE ASD 01:23:07.30 8,3 LUNGO
695 2507 FRELLE-PETERSEN LARS M 685 HARESKOV CYKELKLUB 01:23:08.50 8,3 LUNGO
696 446 KLINKE CLAUS M 686 DAHVID 01:23:11.40 8,29 LUNGO
697 2548 ABIR GIL M 687 IGP 01:23:14.70 8,29 LUNGO
698 1840 FAGA FEDERICO M 688 INDIVIDUALE 01:23:15.00 8,29 LUNGO
699 167 FERNÁNDEZ LOZANO MIRIAM F 10 TRICUBE 01:23:15.10 8,29 LUNGO
700 2379 FARNETI PAOLO M 689 ASD S.G. IMBERIDO 01:23:17.40 8,28 LUNGO
701 2362 CONTI MAURIZIO M 690 INDIVIDUALE 01:23:17.70 8,28 LUNGO
702 2215 LENTI ALESSANDRO M 691 TEAM BENETTI 01:23:19.00 8,28 LUNGO
703 2473 BEDNAREK ANDREAS M 692 DRAHTESEL LÜTZELBACH 01:23:24.60 8,27 LUNGO

Classifica elaborata da www.winningtime.it


SANTINI GRANFONDO STELVIO
CRONOSCALATA MORTIROLO - KM 11,50

Posiz Pett Cognome Sesso PosSex Società Tempo Media Percorso


704 1280 BETANCUR CASTAÑEDA JORGE IVAN M 693 INDIVIDUALE 01:23:26.10 8,27 LUNGO
705 2520 PRESBERG RAN M 694 CNN 200S 01:23:27.40 8,27 LUNGO
706 1269 STRICKO MARTIN M 695 BIKE LIVE 01:23:27.50 8,27 LUNGO
707 1047 VAN LEENGOED VICTOR M 696 INDIVIDUALE 01:23:30.10 8,26 LUNGO
708 5 CASTELLANI ERCOLE M 697 CSI ROMA 01:23:34.00 8,26 LUNGO
709 1194 SESTINI ROBERTO M 698 GS POPPI ASD 01:23:34.00 8,26 LUNGO
710 1187 PARREN JOOST M 699 INDIVIDUALE 01:23:38.40 8,25 LUNGO
711 316 KNIGHTBRIDGE NIBERG-ZEHNGRAFF CARSTEN M 700 INDIVIDUALE 01:23:38.80 8,25 LUNGO
712 2733 SALA MAURIZIO M 701 INDIVIDUALE 01:23:39.00 8,25 LUNGO
713 326 LYSEN JAN M 702 INDIVIDUALE 01:23:40.20 8,25 LUNGO
714 681 WEEKS MARK M 703 INDIVIDUALE 01:23:44.90 8,24 LUNGO
715 2182 SÖLLER PATRICK M 704 SW HOLTWICK 01:23:44.90 8,24 LUNGO
716 1456 GARAVAGLIA ANDREA M 705 INDIVIDUALE 01:23:46.80 8,24 LUNGO
717 1562 ARIÑO MIGUEL ANGEL M 706 INDIVIDUALE 01:23:47.20 8,24 LUNGO
718 1605 PARENTINI ANDREA M 707 ARCI BACCANO 01:23:47.40 8,24 LUNGO
719 247 JONSSON LARS BERTIN M 708 RUBY REJSER 01:23:47.80 8,24 LUNGO
720 1118 PIETRELLI ALESSANDRO M 709 EST TEAM RIVIERA APUANE 01:23:49.80 8,23 LUNGO
721 1016 STEEN HANSEN KENNETH M 710 MTB RANDERS 01:23:55.10 8,22 LUNGO
722 237 HOFMANN JON ALEX M 711 RUBY REJSER 01:23:55.30 8,22 LUNGO
723 2020 SAVAGE MAEVE F 11 LONDON DYNAMO 01:24:04.00 8,21 LUNGO
724 816 DELAGE FREDERIC M 712 CS LA BOUILLADISSE 01:24:04.00 8,21 LUNGO
725 2557 BIAGIOLI GIANLUCA M 713 ASD PACINI FACTORY TEAM 01:24:05.50 8,21 LUNGO
726 2209 DUNCAN ALLAN M 714 FULLARTON WHEELERS 01:24:06.00 8,2 LUNGO
727 317 KNUDSEN CARSTEN M 715 INDIVIDUALE 01:24:09.20 8,2 LUNGO
728 1111 MCVEY JOHN M 716 NYON WHEELIES 01:24:09.90 8,2 LUNGO
729 2648 ILIAENS ILIAENS M 717 INDIVIDUALE 01:24:11.50 8,2 LUNGO
730 2192 CURTIS MARK M 718 INDIVIDUALE 01:24:14.00 8,19 LUNGO
731 2693 CHERIN PAOLO M 719 ASD FEDERCLUB TRIESTE - TECNOEDILE 01:24:14.20 8,19 LUNGO
732 1751 MAGNAGHI MAURO M 720 GS NAVIGLIO 01:24:18.10 8,19 LUNGO
733 1068 BASTEIRO RODRIGUEZ FRANCISCO M 721 INDIVIDUALE 01:24:24.00 8,18 LUNGO
734 392 SCHIVALOCCHI MARCO M 722 ASD GROSIO CICLISMO 01:24:26.00 8,17 LUNGO
735 925 MØLLER NIELS ERIK M 723 SLANGERUP CYKELKLUB 01:24:28.40 8,17 LUNGO
736 1641 LEINWEBER HERMANN M 724 SV STOCKHAUSEN 01:24:28.70 8,17 LUNGO
737 349 THOMSEN CLAUS M 725 INDIVIDUALE 01:24:28.70 8,17 LUNGO
738 1639 DOHERTY PATRICK J M 726 SICC 01:24:30.20 8,17 LUNGO
739 1284 CLEMENT LARS M 727 ERCC 01:24:31.30 8,16 LUNGO
740 2000 BOSCHINI FABIO M 728 TEAM ERREBI GENOVA 01:24:31.60 8,16 LUNGO

Classifica elaborata da www.winningtime.it


SANTINI GRANFONDO STELVIO
CRONOSCALATA MORTIROLO - KM 11,50

Posiz Pett Cognome Sesso PosSex Società Tempo Media Percorso


741 2487 PORZIO ALESSANDRO M 729 ASD DIDA 1980 01:24:32.50 8,16 LUNGO
742 2050 BONFIELD PETER M 730 WELWYN WHEELERS 01:24:34.60 8,16 LUNGO
743 2390 CHASE MARK M 731 INDIVIDUALE 01:24:35.00 8,16 LUNGO
744 2051 CARACCIOLO ROBERTO M 732 BICI & BIKE MESSINA 01:24:38.80 8,15 LUNGO
745 1648 STANEK JOCHEN M 733 LT GMÜND 01:24:39.30 8,15 LUNGO
746 668 SORONDO SEBASTIAN M 734 INDIVIDUALE 01:24:40.80 8,15 LUNGO
747 324 LIND BERTELSEN ERIK M 735 INDIVIDUALE 01:24:41.10 8,15 LUNGO
748 1430 STØHRMANN MADS M 736 INDIVIDUALE 01:24:42.00 8,15 LUNGO
749 2541 ZANELLI ANDREA M 737 ASD IMOLA BIKE 01:24:42.10 8,15 LUNGO
750 2168 VINCI ALBERTO M 738 ASD BICI & BIKE 01:24:42.20 8,15 LUNGO
751 733 ANDREASEN RENÉ M 739 INDIVIDUALE 01:24:43.80 8,14 LUNGO
752 587 BIRRELL MARK M 740 INDIVIDUALE 01:24:47.70 8,14 LUNGO
753 1181 MADRUCCI ANDREA M 741 GS CICLI GAUDENZI 01:24:49.80 8,14 LUNGO
754 865 HERVÉ RAKOWSKI M 742 EPICA CYCLING TEAM 01:24:50.70 8,13 LUNGO
755 1517 WEDLEY GARETH M 743 CHESTER ROAD CLUB 01:24:55.30 8,13 LUNGO
756 784 CALDWELL ANDY M 744 INDIVIDUALE 01:24:55.40 8,13 LUNGO
757 1254 CREMASCHI FLAVIANA F 12 INDIVIDUALE 01:24:55.70 8,13 LUNGO
758 1177 LUCATELLO GIOVANNI M 745 GS POPPI ASD 01:25:02.30 8,11 LUNGO
759 1183 MARTINI FEDERICO M 746 GS POPPI ASD 01:25:04.80 8,11 LUNGO
760 585 BINNENHEI CARSTEN M 747 INDIVIDUALE 01:25:06.00 8,11 LUNGO
761 172 SANCHEZ MIGUEL ANGEL M 748 INDIVIDUALE 01:25:11.20 8,1 LUNGO
762 736 ANGÉLIQUE GOETSCHI F 13 EPICA CYCLING TEAM 01:25:11.50 8,1 LUNGO
763 2273 GERVIL MORTEN M 749 SALTO SYSTEMS NORDIC CYCLING 01:25:11.60 8,1 LUNGO
764 1749 JIMÉNEZ CILLERUELO ORIOL M 750 MALLORCABERLINTEAM 01:25:11.70 8,1 LUNGO
765 1910 EBERTZ THOMAS M 751 INDIVIDUALE 01:25:13.70 8,1 LUNGO
766 3265 GUILLERMO SUSIN CANAL M 752 INDIVIDUALE 01:25:14.30 8,1 LUNGO
767 2065 BALZANI ALEX M 753 ASD SID STRENZ I DENT SPORT TEAM 01:25:20.00 8,09 LUNGO
768 1596 SCHMIDT-TAUBE CHRISTOPH M 754 INDIVIDUALE 01:25:21.10 8,08 LUNGO
769 2165 REEDMAN CHRISTOPHER M 755 INDIVIDUALE 01:25:22.50 8,08 LUNGO
770 1754 TRINH ALAN M 756 MALLORCABERLINTEAM 01:25:25.80 8,08 LUNGO
771 1761 RECIO PEREZ DANIEL M 757 INDEPENDIENTE 01:25:28.90 8,07 LUNGO
772 2490 SCHYNS PHILIPPE M 758 INDIVIDUALE 01:25:29.20 8,07 LUNGO
773 1603 MILJKOVIC DRAGAN M 759 TEAM TESLA 01:25:33.80 8,07 LUNGO
774 1724 KRANENDONK NICO M 760 INDIVIDUALE 01:25:35.20 8,06 LUNGO
775 1503 YOON JAWOONG M 761 WCC 01:25:35.60 8,06 LUNGO
776 1442 LOSADA ALVAREZ OSCAR M 762 INDIVIDUALE 01:25:37.00 8,06 LUNGO
777 954 ØSTERGÅRD MADSEN THOMAS M 763 INDIVIDUALE 01:25:37.30 8,06 LUNGO

Classifica elaborata da www.winningtime.it


SANTINI GRANFONDO STELVIO
CRONOSCALATA MORTIROLO - KM 11,50

Posiz Pett Cognome Sesso PosSex Società Tempo Media Percorso


778 2482 DEMONCEAU FREDDY M 764 INDIVIDUALE 01:25:39.40 8,06 LUNGO
779 1350 SCHAUM PETER M 765 RV KLEINLINDEN 01:25:43.50 8,05 LUNGO
780 1551 LE DU LE DU M 766 INDIVIDUALE 01:25:46.10 8,05 LUNGO
781 1179 LUSINI STEFANO M 767 GS POPPI ASD 01:25:48.20 8,04 LUNGO
782 2645 WINTHER STEEN M 768 3650CYCLING 01:25:48.80 8,04 LUNGO
783 1361 BATTA BENJAMINE F 14 INDIVIDUALE 01:25:50.20 8,04 LUNGO
784 1355 TIMMERMAN BRICE M 769 TRI FORBACH 01:25:50.80 8,04 LUNGO
785 1494 KIM JIHYUN F 15 WCC 01:25:51.50 8,04 LUNGO
786 1990 ROSSI MARCO M 770 ASD GRAN CICLISMO 01:25:51.90 8,04 LUNGO
787 2692 BORDON MARIA TERESA F 16 ASD FEDERCLUB TRIESTE - TECNOEDILE 01:25:56.00 8,03 LUNGO
788 2514 HAYDEN CIARAN M 771 INDIVIDUALE 01:26:02.50 8,02 LUNGO
789 1701 SAKINSEL ALI M 772 NASHIRA CYCLING TEAM 01:26:03.40 8,02 LUNGO
790 1713 MENCI OSMAN M 773 INDIVIDUALE 01:26:05.90 8,02 LUNGO
791 1207 WANZECK STEFAN M 774 RSV MOOSBURG 01:26:06.00 8,01 LUNGO
792 2266 O’BRIEN CRAIG M 775 INDIVIDUALE 01:26:09.40 8,01 LUNGO
793 827 FACCHINETTI CLAUDIO M 776 ASD CICLI BETTONI COSTA VOLPINO 01:26:13.20 8 LUNGO
794 432 MARAGNA LUCIANO M 777 ASDILETTANTISTICA PEDALE GODIASCESE 01:26:14.10 8 LUNGO
795 366 PEDRINI DAVIDE M 778 ASD GROSIO CICLISMO 01:26:14.30 8 LUNGO
796 92 CANGIULLI LORENZO M 779 ASD LACCHIARELLA 01:26:16.50 8 LUNGO
797 2412 BERMAN LOUIS M 780 TWENTY PEAKS 01:26:20.20 7,99 LUNGO
798 3245 BUSK MICHAEL M 781 INDIVIDUALE 01:26:20.30 7,99 LUNGO
799 852 GOLOTSVAN KOSTIANTYN M 782 LG BERTRANGE 01:26:20.40 7,99 LUNGO
800 234 HANSEN KIM LINDKVIST M 783 RUBY REJSER 01:26:23.10 7,99 LUNGO
801 1435 BRÜMMER MANUELA F 17 INNOCENT 17 01:26:24.30 7,99 LUNGO
802 589 BOWDEN PAUL M 784 INDIVIDUALE 01:26:25.30 7,98 LUNGO
803 1858 MELE MARIO M 785 ASD LA TARANTA 01:26:27.80 7,98 LUNGO
804 847 GIL RAMOS M 786 CLUB CICLISTA DE VERIN 01:26:28.20 7,98 LUNGO
805 2160 EVANS JOHN M 787 INDIVIDUALE 01:26:30.00 7,98 LUNGO
806 1660 BIALAS PHILIPPE M 788 INDIVIDUALE 01:26:35.70 7,97 LUNGO
807 1346 PANTON HENRIK KOTTAL M 789 KEMP & LAURITZEN 01:26:35.80 7,97 LUNGO
808 1743 TOMATIS MASSIMO M 790 AS PASSATORE 01:26:38.00 7,96 LUNGO
809 1958 GHISU DANILO PIETRO M 791 ASD CASSINIS CYCLING TEAM 01:26:38.20 7,96 LUNGO
810 1762 REHLINGHAUS MARC M 792 UROBEUYS 01:26:39.00 7,96 LUNGO
811 1365 FRIES MICHAEL M 793 TV RODENBACH 01:26:40.00 7,96 LUNGO
812 2593 ZAGO LUCA M 794 CICLISTICA RIVALTA 01:26:40.20 7,96 LUNGO
813 74 GAMBERINI MAURO M 795 TEAM SPARTANS ASD 01:26:40.80 7,96 LUNGO
814 1072 BORRALLO ADRIAN M 796 LOS CASERAS CYCLING TEAM 01:26:41.00 7,96 LUNGO

Classifica elaborata da www.winningtime.it


SANTINI GRANFONDO STELVIO
CRONOSCALATA MORTIROLO - KM 11,50

Posiz Pett Cognome Sesso PosSex Società Tempo Media Percorso


815 1319 NAUMANN FRANK M 797 TV RODENBACH 01:26:41.40 7,96 LUNGO
816 385 POLONI OMAR VITTORIO M 798 ASD CERAMICHE LEMER 01:26:43.50 7,96 LUNGO
817 2112 SALGADO MARTINEZ FRANCISCO M 799 CLUB CICLISTA VERÍN 01:26:44.80 7,96 LUNGO
818 1386 GLAVAC KLAVDIJ M 800 KAMEN KOCIPER 01:26:46.30 7,95 LUNGO
819 3220 CORTI GIANNI M 801 PEDALE LECCHESE 01:26:48.20 7,95 LUNGO
820 2256 GUGOLZ REMO M 802 WINFORCE 01:26:50.20 7,95 LUNGO
821 2094 BERGOMI ROBERTO M 803 INDIVIDUALE 01:26:50.80 7,95 LUNGO
822 2336 TOWNEND DANIEL M 804 INDIVIDUALE 01:26:52.40 7,94 LUNGO
823 597 CARCHIDI FRANCESCO M 805 INDIVIDUALE 01:26:55.80 7,94 LUNGO
824 1438 HOCHHOLZER THORSTEN M 806 INDIVIDUALE 01:26:57.50 7,94 LUNGO
825 1757 MARANI MARCO M 807 PONTESANTO A.P.D. 01:26:57.80 7,94 LUNGO
826 738 ANTUNES JOÃO PAULO M 808 PINABIKE 01:26:58.30 7,93 LUNGO
827 1652 GRAM UIRIK M 809 INDIVIDUALE 01:27:03.50 7,93 LUNGO
828 1189 POULSEN JAN M 810 CYCLING CHALLENGE 01:27:06.50 7,92 LUNGO
829 1606 RAMOS ESTEBAN M 811 TEAM TESLA 01:27:07.30 7,92 LUNGO
830 1742 STEIDL ANDREA M 812 INDIVIDUALE 01:27:11.30 7,91 LUNGO
831 1258 GEHM ANDREAS M 813 INDIVIDUALE 01:27:12.60 7,91 LUNGO
832 2672 RAATZ DANIEL M 814 INDIVIDUALE 01:27:18.10 7,9 LUNGO
833 1940 AGUADO TURRADO SANTOS M 815 INDIVIDUALE 01:27:20.00 7,9 LUNGO
834 1064 ANDREASEN KIM M 816 INDIVIDUALE 01:27:21.30 7,9 LUNGO
835 504 CARRERA DAVIDE M 817 PRO PATRIA MILANO S.R.L. 01:27:22.60 7,9 LUNGO
836 2300 KELLY JAMES M 818 INDIVIDUALE 01:27:26.70 7,89 LUNGO
837 2664 EGGER MICHAEL BARTHOLOMÄUS M 819 INDIVIDUALE 01:27:28.90 7,89 LUNGO
838 462 VARRICCHIO ANTONIO M 820 G.S. GILARDI 01:27:31.60 7,88 LUNGO
839 2363 CRIPPA MASSIMO M 821 ASD TREGASIO CYCLING TEAM 01:27:34.00 7,88 LUNGO
840 2305 NORBY HENRIK M 822 SVENDBORG CC 01:27:34.20 7,88 LUNGO
841 2117 ASSALINO MATTEO M 823 ASD TEAM EVO PROJECT 01:27:34.40 7,88 LUNGO
842 233 HANSEN KARSTEN MØLLER M 824 RUBY REJSER 01:27:34.40 7,88 LUNGO
843 1191 RICH LEON M 825 INDIVIDUALE 01:27:36.50 7,88 LUNGO
844 2522 SKRABA MICHAL M 826 GT RAT 01:27:37.60 7,88 LUNGO
845 2433 MARTIN PAOLO M 827 SQUADRA CORSE CUSSIGH BIKE 01:27:39.50 7,87 LUNGO
846 1455 GAIERA GIANLUIGI M 828 INDIVIDUALE 01:27:45.00 7,86 LUNGO
847 166 VIDAL CANO BARTOMEU M 829 TRIATLÓ CUBE 01:27:48.30 7,86 LUNGO
848 753 BENEDETTI ANGELO M 830 G.S.PEDALE PIETRASANTINO 01:27:48.50 7,86 LUNGO
849 686 TRAN PHUOC M 831 INDIVIDUALE 01:27:57.50 7,85 LUNGO
850 464 REMOLLINO GAETANO M 832 G.S. TRABATTONI 01:27:58.20 7,84 LUNGO
851 1925 DROSTE MAXIMILIAN M 833 FLOWBIKER 01:28:08.50 7,83 LUNGO

Classifica elaborata da www.winningtime.it


SANTINI GRANFONDO STELVIO
CRONOSCALATA MORTIROLO - KM 11,50

Posiz Pett Cognome Sesso PosSex Società Tempo Media Percorso


852 600 CLARK ANDREW M 834 INDIVIDUALE 01:28:13.50 7,82 LUNGO
853 2356 VOLENTIER MATEJ M 835 INDIVIDUALE 01:28:14.50 7,82 LUNGO
854 2107 HÖMANN ROLF M 836 INDIVIDUALE 01:28:14.90 7,82 LUNGO
855 1527 KOOP GUDRUN F 18 INDIVIDUALE 01:28:16.00 7,82 LUNGO
856 2199 MØLLER MADS PETER M 837 INDIVIDUALE 01:28:21.20 7,81 LUNGO
857 1426 PULEO GIANCARLO M 838 ASD SANT'AGATA LI BATTIATI - THE BLACK SHEEP 01:28:22.90 7,81 LUNGO
858 230 FENGER KIM MØLLER M 839 RUBY REJSER 01:28:27.70 7,8 LUNGO
859 1086 FERNANDEZ RAMIREZ PEDRO M 840 GEFO 01:28:28.30 7,8 LUNGO
860 235 HANSEN MARTIN MØLLER M 841 RUBY REJSER 01:28:28.70 7,8 LUNGO
861 1223 HESSE CLEMENS M 842 SQUADRA CICLISMO COLONIA 01:28:31.00 7,8 LUNGO
862 1020 STEPHANSEN NICOLAI M 843 BIG GUYS ON SMALL RINGS 01:28:35.70 7,79 LUNGO
863 2331 BAQUERO CARLOS M 844 INDIVIDUALE 01:28:42.30 7,78 LUNGO
864 2679 JABLANSCEK JANKO M 845 ASDFEDERCLUB TRIESTE-TECNOEDILE 01:28:48.50 7,77 LUNGO
865 1123 RASK STEEN M 846 INDIVIDUALE 01:28:59.00 7,75 LUNGO
866 2472 BASSI ALESSANDRO M 847 ASD POL. ORATORIO BARIANO 01:28:59.50 7,75 LUNGO
867 1451 BARBANTANI SERGIO M 848 GRUPPO CICLISTI CANTALUPO 01:29:03.70 7,75 LUNGO
868 1015 SPIRI ALESSANDRO M 849 ASD CICLISTICA OSPEDALETTI BICISPORT 01:29:05.00 7,75 LUNGO
869 1087 FORBES RANALD M 850 INDIVIDUALE 01:29:06.20 7,74 LUNGO
870 1454 FALCINI STEFANO M 851 CICLISTICA GREVIGIANA 01:29:09.20 7,74 LUNGO
871 1220 GIRONES JORDI M 852 DELINQUENT VALLEY 01:29:14.00 7,73 LUNGO
872 2429 FUENTES CARLOS M 853 JAGUARES 01:29:14.20 7,73 LUNGO
873 764 BLANCO ABEL M 854 INDIVIDUALE 01:29:14.30 7,73 LUNGO
874 277 CHIEN CHEN-NAN M 855 INDIVIDUALE 01:29:18.90 7,73 LUNGO
875 839 GALLO STAMPINO DANIELE M 856 US LEGNANESE 01:29:19.00 7,73 LUNGO
876 98 JUST CHRISTENSEN MIKKEL M 857 GRÅSTEN CYKELKLUB 01:29:19.20 7,73 LUNGO
877 877 JENSEN KASPER M 858 INDIVIDUALE 01:29:19.50 7,73 LUNGO
878 1511 MARINO GIANCARLO M 859 INDIVIDUALE 01:29:21.20 7,72 LUNGO
879 259 PEDERSEN RENE M 860 RUBY REJSER 01:29:21.70 7,72 LUNGO
880 2314 FRANDSEN MORTEN M 861 TRI4 01:29:22.80 7,72 LUNGO
881 3221 BECCHETTI GIACOMO M 862 ASD ZEROTRENTA TRIATHLON 01:29:24.70 7,72 LUNGO
882 1240 TOFT SOERENSEN MICHAEL M 863 TOFT IT CYCLING 01:29:43.20 7,69 LUNGO
883 2391 ANDERSEN SEBASTIAN M 864 INDIVIDUALE 01:29:48.70 7,68 LUNGO
884 866 HEYWARD-CHAPLIN MARK M 865 INDIVIDUALE 01:29:56.90 7,67 LUNGO
885 1364 CHIAPPANI FAUSTO M 866 SINTESI CICLYNG TEAM 01:29:57.70 7,67 LUNGO
886 658 ROBUSTELLI ANTONIO M 867 INDIVIDUALE 01:29:58.40 7,67 LUNGO
887 920 MCPHERSON ANDY M 868 VC10 01:30:03.80 7,66 LUNGO
888 1488 GAUTRON MICHAEL M 869 MVICC GF MONT VENTOUX 01:30:04.40 7,66 LUNGO

Classifica elaborata da www.winningtime.it


SANTINI GRANFONDO STELVIO
CRONOSCALATA MORTIROLO - KM 11,50

Posiz Pett Cognome Sesso PosSex Società Tempo Media Percorso


889 330 MORTENSEN LARS M 870 INDIVIDUALE 01:30:04.70 7,66 LUNGO
890 397 LOMBARDO ARTURO PIO ROSARIO M 871 ASD IL PEDALE NEL CUORE 01:30:06.20 7,66 LUNGO
891 532 BRAND ANDREW M 872 TEAM EUROPEAN CYCLE EVENTS 01:30:06.80 7,66 LUNGO
892 2488 RIGHINI CLAVIO M 873 IMOLA TRIATHLON 01:30:07.80 7,66 LUNGO
893 1347 PLÖGER THOMAS M 874 DIE LUSCHEN 01:30:08.00 7,66 LUNGO
894 67 BONUCCI STEFANO M 875 FREE BIKERS PEDALE FOLLONICHESE 01:30:09.40 7,65 LUNGO
895 1185 NAGY EMIL M 876 INDIVIDUALE 01:30:13.20 7,65 LUNGO
896 1601 FIORE MICHELE M 877 ASD CERAMICHE LEMER 01:30:14.20 7,65 LUNGO
897 747 BARONE GIOVANNI M 878 ASD CERAMICHE LEMER 01:30:15.60 7,65 LUNGO
898 2415 FISHMAN ZVIKA M 879 TWENTY PEAKS 01:30:17.40 7,64 LUNGO
899 1165 FRANK KIRSTEN F 19 TUS KREUZWEINGARTEN 01:30:19.00 7,64 LUNGO
900 677 VITELLARO CARLO M 880 INDIVIDUALE 01:30:21.50 7,64 LUNGO
901 1119 PINA MARTÍNEZ SAÚL M 881 HOGAR CICLOS G.D. 01:30:22.30 7,64 LUNGO
902 2453 MASIERO ALESSANDRO M 882 VELO CLUB CASSANO MAGNAGO 1992 AD 01:30:24.70 7,63 LUNGO
903 1417 FLORESTA ATTILIO M 883 ASD CITTA' DI MISTERBIANCO ENTE ACSI 01:30:29.50 7,63 LUNGO
904 1514 SAHR CHRISTOPH M 884 TESLA 01:30:33.40 7,62 LUNGO
905 2101 REIJNIERSE ARJEB M 885 INDIVIDUALE 01:30:33.60 7,62 LUNGO
906 942 NIELSEN KASPER SKOVGAARD M 886 INDIVIDUALE 01:30:33.70 7,62 LUNGO
907 1919 ALMODÓVAR TORRES VICENTE M 887 CC PUZOL 01:30:36.00 7,62 LUNGO
908 319 KONGSTE NIELS-ERIK M 888 INDIVIDUALE 01:30:36.50 7,62 LUNGO
909 1875 LIM JIN YONG M 889 KOPI RIDERS 01:30:37.40 7,61 LUNGO
910 2371 NOTLEY SEAN M 890 INDIVIDUALE 01:30:40.60 7,61 LUNGO
911 2385 TRAVENZOLI ROBERTO M 891 AUTOCAROZZERIA RALLY 01:30:44.40 7,6 LUNGO
912 2650 TINI MARCO M 892 ASD GS AVIS GUALDO TADINO 01:30:44.60 7,6 LUNGO
913 1358 VINTER PER M 893 KEMP & LAURITZEN 01:30:45.70 7,6 LUNGO
914 2234 KNUDSEN JENS M 894 ULSTRUP CYKELMOTION 01:30:46.40 7,6 LUNGO
915 2323 CONSONNI ANDREA M 895 GEFO 01:30:46.50 7,6 LUNGO
916 261 PLOVSING RONNI THERMANN REITZ M 896 RUBY REJSER 01:30:47.10 7,6 LUNGO
917 1768 BECK OLIVIER M 897 UCP 01:30:50.10 7,6 LUNGO
918 472 POMPEI GIANCARLO M 898 GS AVIS GUALDO TADINO 01:30:50.20 7,6 LUNGO
919 1808 SASSI RICCARDO M 899 ASD VEROCA 01:30:50.80 7,6 LUNGO
920 1992 SALA MASSIMO M 900 GROSIO CICLISMO 01:30:51.70 7,59 LUNGO
921 1011 SMITHSON JONATHAN M 901 LANTERNE ROUGE 01:30:52.70 7,59 LUNGO
922 2203 CHRISTENSEN THOMAS KOLD M 902 FAEDERGRUPPEN 01:30:54.40 7,59 LUNGO
923 456 ALLEN TERRY M 903 EUROPEAN CYCLE EVENTS 01:30:54.90 7,59 LUNGO
924 2405 FLIGHT DAVID M 904 INDIVIDUALE 01:30:56.80 7,59 LUNGO
925 2556 ZORDAN ALESSANDRO M 905 CUSTOM4 RDR FACTORY TEAM 01:30:58.50 7,59 LUNGO

Classifica elaborata da www.winningtime.it


SANTINI GRANFONDO STELVIO
CRONOSCALATA MORTIROLO - KM 11,50

Posiz Pett Cognome Sesso PosSex Società Tempo Media Percorso


926 1071 BIREN ALAIN M 906 INDIVIDUALE 01:31:01.80 7,58 LUNGO
927 649 PEDERSEN CLAUS LUND M 907 INDIVIDUALE 01:31:02.30 7,58 LUNGO
928 634 KROKNES HANS M 908 INDIVIDUALE 01:31:07.80 7,57 LUNGO
929 1397 RIVERA GOYA JAVIER M 909 ITV - ICE FOR LIFE 01:31:12.90 7,57 LUNGO
930 1725 MARCHIONNI MARCO M 910 AUTOCARROZZERIA RALLY 01:31:14.70 7,56 LUNGO
931 1178 LUKOSCHUS CHRISTOPH M 911 PT LOUNGE BERLIN 01:31:19.20 7,56 LUNGO
932 1623 LUFF VAUGHAN M 912 INDIVIDUALE 01:31:20.80 7,55 LUNGO
933 2286 FREIRE BARGO OSCAR M 913 OEA 01:31:23.20 7,55 LUNGO
934 1406 BADULLI FEDERICO M 914 ASD LACCHIARELLA 01:31:24.80 7,55 LUNGO
935 258 PEDERSEN KENNI MARTIN M 915 RUBY REJSER 01:31:26.50 7,55 LUNGO
936 1256 ENGLERT ANDRÉ M 916 #RIDEPUNKX POWERED BY DRAHTESEL-LÜTZELBACH.DE 01:31:27.00 7,55 LUNGO
937 972 PUIGVERT PLADEMUNT JOSEP MARIA M 917 CC MUNTBIKES 01:31:27.10 7,55 LUNGO
938 2339 GUARDAMAGNA MARCO M 918 TEAM MAGNERNO BIKE 01:31:29.30 7,54 LUNGO
939 512 AGOSTINI PIERGIORGIO M 919 RODES VAL BADIA RAIFFEISEN 01:31:31.80 7,54 LUNGO
940 2236 LAGERSSON NIKLAS M 920 INDIVIDUALE 01:31:34.60 7,54 LUNGO
941 1439 KRESTAN FILIP M 921 SK RYTÍRSKÁ 01:31:35.00 7,53 LUNGO
942 77 BRUZZA ALESSANDRO M 922 ONE GEAR ASD 01:31:36.00 7,53 LUNGO
943 2330 ZENTAI ZSOLT M 923 SUPERIOR MTB TEAM 01:31:36.40 7,53 LUNGO
944 2100 JANSSEN EDGAR M 924 MULLERTHAL CYCLING 01:31:43.20 7,52 LUNGO
945 158 VIOLA MARIO M 925 ASD ROMA CICLISMO 01:31:44.70 7,52 LUNGO
946 1497 PAVESE GIACOMO M 926 ASD I BRIC 01:31:46.20 7,52 LUNGO
947 2690 VOIGT JOERG M 927 INDIVIDUALE 01:31:47.00 7,52 LUNGO
948 715 NEWSON RICHARD M 928 INDIVIDUALE 01:31:47.00 7,52 LUNGO
949 2610 BERTOLETTI MAURO M 929 DT BIANCHI 01:31:47.10 7,52 LUNGO
950 1644 RIVINIUS VIKTOR M 930 SV STOCKHAUSEN 01:31:48.50 7,52 LUNGO
951 3225 ABILDLØKKE-RASMUSSEN MORTEN M 931 INDIVIDUALE 01:31:50.80 7,51 LUNGO
952 2204 FREDERIKSEN LARS M 932 FAEDREGRUPPEN 01:31:53.60 7,51 LUNGO
953 2116 ANDREOZZI DAVIDE M 933 ASD TEAM EVO PROJECT 01:32:01.70 7,5 LUNGO
954 156 MAIORANA SERGIO M 934 2R BIKE STORE 01:32:10.00 7,49 LUNGO
955 1995 ZAKOLSKI TOMASZ M 935 INDIVIDUALE 01:32:10.40 7,49 LUNGO
956 2606 FONTANA RONY ROBERT M 936 GIRO BIKE 01:32:11.60 7,49 LUNGO
957 1215 DE BLAS MARIANO M 937 DONOSTIARRA 01:32:14.00 7,48 LUNGO
958 1964 KAKIEL AGATA F 20 INDIVIDUALE 01:32:18.40 7,48 LUNGO
959 2036 WAGTBERG HENRIK M 938 INDIVIDUALE 01:32:19.30 7,47 LUNGO
960 973 RAHO EDOARDO M 939 ASD CARBINIA BIKE CAROVIGNO 01:32:20.20 7,47 LUNGO
961 1388 HANSEN OLE M 940 INDIVIDUALE 01:32:27.30 7,46 LUNGO
962 844 GAWRONSKI JAN M 941 LANTERNE ROUGE 01:32:30.30 7,46 LUNGO

Classifica elaborata da www.winningtime.it


SANTINI GRANFONDO STELVIO
CRONOSCALATA MORTIROLO - KM 11,50

Posiz Pett Cognome Sesso PosSex Società Tempo Media Percorso


963 1145 ANDREUCCI GIANNI M 942 GS POPPI ASD 01:32:35.90 7,45 LUNGO
964 2442 SZÉKEDI TAMÁS M 943 INDIVIDUALE 01:32:41.60 7,44 LUNGO
965 3226 JOHANNESSEN ARNE M 944 01:32:41.80 7,44 LUNGO
966 442 BALESTRACCI FABIO CARLO M 945 CICLISTI MONZESI 01:32:43.90 7,44 LUNGO
967 1538 VANHEES GERT M 946 DE VENT-TIELTJES 01:32:44.90 7,44 LUNGO
968 2345 GIORDANO ARANGO LEANDRO JAVIER M 947 INDIVIDUALE 01:32:46.90 7,44 LUNGO
969 1676 HUNTER JON M 948 INDIVIDUALE 01:32:47.40 7,44 LUNGO
970 2448 ZIEGLER REINER M 949 INDIVIDUALE 01:32:47.80 7,44 LUNGO
971 2492 UGOLINI ANDREA M 950 ASD DIDA 1980 01:32:48.90 7,44 LUNGO
972 1266 NEUMANN VOLKER M 951 INDIVIDUALE 01:32:49.00 7,43 LUNGO
973 1282 BOEL JEPPE M 952 ERCC 01:32:53.40 7,43 LUNGO
974 2420 PIERONI ILARIA F 21 GRUPPO CICLISTICO VAL DI MERSE ASD 01:32:55.00 7,43 LUNGO
975 1899 IVANYK IGOR M 953 INDIVIDUALE 01:32:55.90 7,43 LUNGO
976 1169 HOLM HANSEN JESPER M 954 INDIVIDUALE 01:32:56.20 7,42 LUNGO
977 2017 JOHNSTON DAVID M 955 INDIVIDUALE 01:32:57.00 7,42 LUNGO
978 1277 ABATE GIACOMO M 956 GIUSFREDI CICLISMO 01:33:05.40 7,41 LUNGO
979 2590 SALVATORE TAURISANO M 957 ASD TEAM FUORISOGLIA 01:33:05.60 7,41 LUNGO
980 2570 FRANCO DI MARCOBERARDINO M 958 INDIVIDUALE 01:33:08.50 7,41 LUNGO
981 1252 BIBOLOTTI ROBERTO M 959 GS PEDALE PIETRASANTINO 01:33:09.70 7,41 LUNGO
982 3273 SIKORSKI PAWEL PIOTR M 960 INDIVIDUALE 01:33:13.20 7,4 LUNGO
983 2044 LOIC PECHE M 961 VTT FUN CLUB 01:33:13.40 7,4 LUNGO
984 49 SIMONE ZUCCHETTI M 962 US BORMIESE 01:33:19.40 7,39 LUNGO
985 2406 SCHEIDEGGER KEVIN M 963 INDIVIDUALE 01:33:19.80 7,39 LUNGO
986 341 PEDERSEN JACOB M 964 INDIVIDUALE 01:33:22.80 7,39 LUNGO
987 479 OCCHINO SANTI DANILO M 965 IL PEDALE NEL CUORE 01:33:24.90 7,39 LUNGO
988 1391 MALASPINA CORRADO M 966 SC VILLAFRANCA 01:33:31.80 7,38 LUNGO
989 956 PADULA ALESSANDRO M 967 ASD MTB CITTA DEGLI IMPERIALI 01:33:37.60 7,37 LUNGO
990 721 THOMAS SIMON M 968 INDIVIDUALE 01:33:38.70 7,37 LUNGO
991 1801 PETERSEN PETERSEN M 969 INDIVIDUALE 01:33:41.20 7,37 LUNGO
992 1121 PUIGVERT SOLER JOAN M 970 MUNTBIKES CC 01:33:43.80 7,36 LUNGO
993 2284 CHAPMAN TONY M 971 TEAM EUROPEAN CYCLE EVENTS 01:33:45.40 7,36 LUNGO
994 1651 FJØLNER HENRIK M 972 TESLA 01:33:45.60 7,36 LUNGO
995 23 GUGGIOLA MATTEO M 973 US BORMIESE 01:33:49.60 7,35 LUNGO
996 717 PIKE DEAN M 974 INDIVIDUALE 01:33:50.40 7,35 LUNGO
997 1427 SACCO ANGELO M 975 LUPI DELLA MURGIA - MA3A ASD 01:33:51.20 7,35 LUNGO
998 944 NIKOLAKIS DIMITRIOS M 976 INDIVIDUALE 01:33:51.70 7,35 LUNGO
999 2302 VINK HEIN M 977 CS010 01:33:54.50 7,35 LUNGO

Classifica elaborata da www.winningtime.it


SANTINI GRANFONDO STELVIO
CRONOSCALATA MORTIROLO - KM 11,50

Posiz Pett Cognome Sesso PosSex Società Tempo Media Percorso


1000 2736 GIUNTOLI ROBERTO M 978 TRITTICI DEL SERRA ASD 01:33:55.20 7,35 LUNGO
1001 2341 ROHMER CHRISTOPH M 979 UROBEUYS 01:33:57.60 7,34 LUNGO
1002 2040 THOMSEN JESPER M 980 INDIVIDUALE 01:33:59.00 7,34 LUNGO
1003 1989 ROSEMEIER PHILIPP M 981 FLOWBIKER 01:34:00.20 7,34 LUNGO
1004 395 CATALANO CARMELO M 982 ASD IL PEDALE NEL CUORE 01:34:03.50 7,34 LUNGO
1005 1683 TORCHALLA ELIAS M 983 HSGAZELLEN 01:34:04.50 7,34 LUNGO
1006 2309 MENDE LUDGER M 984 INDIVIDUALE 01:34:05.10 7,33 LUNGO
1007 2628 PORCEL NOGALES JAVIER M 985 TRI CUBE MANRESA 01:34:06.10 7,33 LUNGO
1008 1416 DRAGONE ENRICO M 986 CERAMICHE E MASSERIE 01:34:07.60 7,33 LUNGO
1009 64 GROSSO GIUSEPPE M 987 BIKE OFF 01:34:09.30 7,33 LUNGO
1010 2026 ALBER JONAS M 988 INDIVIDUALE 01:34:09.70 7,33 LUNGO
1011 1495 KÖRBLER KLAUS M 989 ÖTB TURNVEREIN FRIESACH 01:34:13.40 7,32 LUNGO
1012 1048 VEJLGAARD JESPER M 990 INDIVIDUALE 01:34:15.40 7,32 LUNGO
1013 11 DOLGETTA ZINIA F 22 US BORMIESE 01:34:21.80 7,31 LUNGO
1014 749 BARTEK PAOLO M 991 INDIVIDUALE 01:34:23.50 7,31 LUNGO
1015 1756 LAZARI GIAN PAOLO M 992 LA TARANTA 01:34:26.20 7,31 LUNGO
1016 1125 REIS BÉNÉDICTE F 23 INDIVIDUALE 01:34:36.90 7,29 LUNGO
1017 1088 FRANCISCO GARCÍA JOSE LUIS M 993 CLUB CICLISTA VERÍN 01:34:47.10 7,28 LUNGO
1018 2166 ROHR MATTHIAS M 994 INDIVIDUALE 01:34:53.90 7,27 LUNGO
1019 1723 KNOLL MANFRED M 995 INDIVIDUALE 01:34:57.00 7,27 LUNGO
1020 2179 RAMOS MARTIN LUIS ENRIQUE M 996 LOS CASERAS RACING TEAM 01:35:05.80 7,26 LUNGO
1021 1597 WEINER DAVID M 997 INDIVIDUALE 01:35:08.70 7,25 LUNGO
1022 957 PATO MAGARIÑOS MANUEL M 998 C. C. OS ESFOLA ARROS 01:35:15.60 7,24 LUNGO
1023 861 HENRIQUE COUTINHO LUIS MARIANO M 999 INDIVIDUALE 01:35:18.90 7,24 LUNGO
1024 1273 VOLONTÈ LUCA M 1000 SIRONITANZI 1947 SEVESO ASD 01:35:19.90 7,24 LUNGO
1025 1462 SEARLE PAUL M 1001 INDIVIDUALE 01:35:26.90 7,23 LUNGO
1026 1594 PHILIPPE CHAPEAU M 1002 ASA VAUZELLES TRIATHLON FRANCE 01:35:28.20 7,23 LUNGO
1027 2180 SCHMIDT JOSEF M 1003 INDIVIDUALE 01:35:29.70 7,23 LUNGO
1028 1479 SMITH GEOFF M 1004 INDIVIDUALE 01:35:31.40 7,22 LUNGO
1029 1229 KUCK PEER M 1005 SQUADRA CICLISMO COLONIA 01:35:34.20 7,22 LUNGO
1030 3250 ANTOCI GRAZIANA F 24 ASD GRUPPO CICLISTICO '95 NOVARA 01:35:38.50 7,22 LUNGO
1031 1010 SMIT JACOB M 1006 ROBECO 01:35:40.00 7,21 LUNGO
1032 2547 SØRENSEN JENS AHM M 1007 INDIVIDUALE 01:35:40.90 7,21 LUNGO
1033 820 DURÃO RODRIGUES HERMENEGILDO JOSÉ M 1008 INDIVIDUALE 01:35:42.70 7,21 LUNGO
1034 1283 BRESELE MANFRED M 1009 INDIVIDUALE 01:35:42.90 7,21 LUNGO
1035 2301 VALIANI DANIELE M 1010 GIUSFREDI CICLISMO 01:35:45.20 7,21 LUNGO
1036 1897 CZECH ROLAND M 1011 INDIVIDUALE 01:35:47.70 7,2 LUNGO

Classifica elaborata da www.winningtime.it


SANTINI GRANFONDO STELVIO
CRONOSCALATA MORTIROLO - KM 11,50

Posiz Pett Cognome Sesso PosSex Società Tempo Media Percorso


1037 2152 AMMANN AMMANN M 1012 INDIVIDUALE 01:35:54.20 7,19 LUNGO
1038 2462 BAGNOLI JONATAN M 1013 ASD ARCI CERRETO GUIDI 01:35:54.20 7,19 LUNGO
1039 2276 CAPITANIO MASSIMO M 1014 INDIVIDUALE 01:36:00.40 7,19 LUNGO
1040 206 VEVERKA MILOS M 1015 INDIVIDUALE 01:36:05.30 7,18 LUNGO
1041 1474 PAULY VINCENT M 1016 INDIVIDUALE 01:36:06.50 7,18 LUNGO
1042 1090 GARCIA TESO JAVIER M 1017 INDIVIDUALE 01:36:06.60 7,18 LUNGO
1043 1708 IVAGNES MARCO M 1018 Q.D.B.C 01:36:07.10 7,18 LUNGO
1044 386 TURCO SALVATORE M 1019 ASD CERAMICHE LEMER 01:36:21.10 7,16 LUNGO
1045 3223 ERIKSEN BJØRN M 1020 INDIVIDUALE 01:36:25.20 7,16 LUNGO
1046 1161 DUBON MARIO M 1021 ZUCARITAS 01:36:26.20 7,16 LUNGO
1047 73 TURCHI LUCA M 1022 TEAM ORSO ON BIKE ASD 01:36:32.90 7,15 LUNGO
1048 2430 GERSTLAUER PAUL M 1023 INDIVIDUALE 01:36:37.60 7,14 LUNGO
1049 1640 GÖTZ HARTMUT M 1024 SV STOCKHAUSEN 01:36:38.40 7,14 LUNGO
1050 1805 ROSTOHAR SAMO M 1025 INDIVIDUALE 01:36:40.00 7,14 LUNGO
1051 333 NIELSEN LISBETH F 25 INDIVIDUALE 01:36:41.80 7,14 LUNGO
1052 1976 MERA VALENTINA F 26 GEMME BIKE 01:36:44.30 7,13 LUNGO
1053 1028 TEPPER MARIO M 1026 FAST ZWEIRAD HAUS 01:36:47.80 7,13 LUNGO
1054 1040 USBORNE GARY M 1027 INDIVIDUALE 01:36:50.20 7,13 LUNGO
1055 1001 SANTOS JOAQUIM M 1028 INDIVIDUALE 01:36:52.20 7,12 LUNGO
1056 2717 LIJNSE JOHANNES M 1029 INDIVIDUALE 01:36:53.60 7,12 LUNGO
1057 197 LIHAJ ROMAN M 1030 INDIVIDUALE 01:36:53.90 7,12 LUNGO
1058 782 CACHAPA MUACHO PAULO JORGE M 1031 INDIVIDUALE 01:36:54.80 7,12 LUNGO
1059 2128 DABKOWSKI KRZYSZTOF M 1032 INDIVIDUALE 01:36:55.50 7,12 LUNGO
1060 1787 KNOOK ADRIAAN M 1033 TEAM LIMBURG 01:36:56.70 7,12 LUNGO
1061 837 FRIGOLI MARCO M 1034 ASD.GS CICLOAMATORI MELEGNANO 01:36:58.40 7,12 LUNGO
1062 974 RAMOS BALBOA JOSE DOMINGO M 1035 C. C. OS ESFOLA ARROS 01:37:01.40 7,11 LUNGO
1063 709 JAMES MARK M 1036 INDIVIDUALE 01:37:01.50 7,11 LUNGO
1064 654 PITTNER AGUSTIN M 1037 INDIVIDUALE 01:37:13.80 7,1 LUNGO
1065 2158 SLANA SIMON M 1038 KK KAMEN KOCIPER 01:37:14.10 7,1 LUNGO
1066 867 HJÆRESEN CLAUS M 1039 TEAM MOST WANTED 01:37:14.20 7,1 LUNGO
1067 196 KUSTAR MARTIN M 1040 INDIVIDUALE 01:37:17.30 7,09 LUNGO
1068 56 STARC PAOLO M 1041 US BORMIESE 01:37:25.90 7,08 LUNGO
1069 1217 FONTEYN PHILIPP M 1042 INDIVIDUALE 01:37:27.00 7,08 LUNGO
1070 1516 DEBIASI DANIELE M 1043 VC CASSANO MAGNAGO 1992 01:37:31.00 7,08 LUNGO
1071 675 VILLADSEN KARSTEN M 1044 INDIVIDUALE 01:37:39.30 7,07 LUNGO
1072 2580 THOMAS WILFRIED M 1045 MVICC - MONT VENTOUX INTERNATIONAL CYCLING CLUB 01:37:42.60 7,06 LUNGO
1073 965 PIERA SANCHEZ OSCAR M 1046 SPRINT BIKE 01:37:43.90 7,06 LUNGO

Classifica elaborata da www.winningtime.it


SANTINI GRANFONDO STELVIO
CRONOSCALATA MORTIROLO - KM 11,50

Posiz Pett Cognome Sesso PosSex Società Tempo Media Percorso


1074 266 SAVAGE NOEL M 1047 RUBY REJSER 01:37:48.70 7,06 LUNGO
1075 693 ANDINA MAURO M 1048 ASD TEAM EDDY BIKE 01:37:57.50 7,04 LUNGO
1076 1972 LÜCKOFF FRANK M 1049 GOTT.DE 01:38:03.20 7,04 LUNGO
1077 2700 KEYSER CATHRINE F 27 INDIVIDUALE 01:38:05.90 7,03 LUNGO
1078 750 BASSO VANNA F 28 INDIVIDUALE 01:38:08.40 7,03 LUNGO
1079 621 HABENICHT MALTE M 1050 INDIVIDUALE 01:38:11.20 7,03 LUNGO
1080 722 TRICKETT NEIL M 1051 INDIVIDUALE 01:38:13.60 7,03 LUNGO
1081 1607 STETTLER JÜRG M 1052 IG RADQUER METTMENSTETTEN / BYHAND.CH 01:38:15.40 7,02 LUNGO
1082 2242 BELCHER TYLER M 1053 INDIVIDUALE 01:38:20.30 7,02 LUNGO
1083 2032 MEZZENZANA MAURO M 1054 US SANGIORGESE ASD 01:38:22.30 7,01 LUNGO
1084 2035 SCHRÖDER ECKHARD M 1055 INDIVIDUALE 01:38:23.00 7,01 LUNGO
1085 840 GARGANESE GIUSEPPE M 1056 ASD M.T.B. CITTÀ DEGLI IMPERIALI 01:38:25.10 7,01 LUNGO
1086 632 KNUDSEN ANDERS M 1057 INDIVIDUALE 01:38:34.10 7 LUNGO
1087 355 ZORNIG KELD M 1058 INDIVIDUALE 01:38:39.90 6,99 LUNGO
1088 1692 SMITHSON TIMOTHY M 1059 INDIVIDUALE 01:38:40.20 6,99 LUNGO
1089 879 JOHANNESEN PREBEN M 1060 TEAM GOD TUR 01:38:43.10 6,99 LUNGO
1090 2357 WEHKING FRANK M 1061 HOFHEIMER KETTENHUNDE 01:38:46.10 6,99 LUNGO
1091 978 RAVN PEER M 1062 SLAGELSE BIKE BOYS 01:38:46.60 6,99 LUNGO
1092 1066 AROSIO MARCO M 1063 BICI CLUB 2000 01:38:52.20 6,98 LUNGO
1093 1108 KURZE MICHAEL M 1064 INDIVIDUALE 01:38:53.10 6,98 LUNGO
1094 1750 LANZONI STEFANO M 1065 ASD SACMI 01:39:01.00 6,97 LUNGO
1095 2469 PALUSZYNSKI ANDRZEJ M 1066 INDIVIDUALE 01:39:05.90 6,96 LUNGO
1096 3261 SERDIUK DMYTRO M 1067 SOFT SOFA CC 01:39:06.50 6,96 LUNGO
1097 2505 BRONROT ITZIK M 1068 DYNAMO RACING 01:39:10.20 6,96 LUNGO
1098 2467 BINI ULISSE M 1069 INDIVIDUALE 01:39:11.20 6,96 LUNGO
1099 2129 DODD SEAN M 1070 INDIVIDUALE 01:39:17.80 6,95 LUNGO
1100 1470 LIMONETTI MARIKA F 29 AS TEAM GULLIVER BIKE 01:39:19.70 6,95 LUNGO
1101 2189 HOLIAN JOHN M 1071 INDIVIDUALE 01:39:19.90 6,95 LUNGO
1102 1473 NICCOLAI DANIELE M 1072 ASD TEAM STEFAN 01:39:23.90 6,94 LUNGO
1103 1158 CONDE GALILEO M 1073 ZUCARITAS 01:39:32.70 6,93 LUNGO
1104 1410 ADDUCE GIANPAOLO M 1074 TEAM BIKE MATERA 01:39:34.70 6,93 LUNGO
1105 2019 RUSZKIEWICZ RENATA F 30 LONDON DYNAMO 01:39:39.10 6,92 LUNGO
1106 969 PLATT PAUL M 1075 INDIVIDUALE 01:39:40.40 6,92 LUNGO
1107 554 DULCETTI GIUSEPPE M 1076 US LEGNANESE 01:39:48.80 6,91 LUNGO
1108 850 GLACKIN SHANE M 1077 INDIVIDUALE 01:39:54.60 6,91 LUNGO
1109 1510 KOGLER PHILIPP M 1078 ÖTB TURNVEREIN FRIESACH 01:39:57.50 6,9 LUNGO
1110 1581 RICHARDSON RICHARDSON M 1079 ARRIA WHEELERS 01:40:00.10 6,9 LUNGO

Classifica elaborata da www.winningtime.it


SANTINI GRANFONDO STELVIO
CRONOSCALATA MORTIROLO - KM 11,50

Posiz Pett Cognome Sesso PosSex Società Tempo Media Percorso


1111 1059 YARDLEY ALAN M 1080 INDIVIDUALE 01:40:02.30 6,9 LUNGO
1112 2306 THOMPSON MARK M 1081 TEAM EUROPEAN CYCLE EVENTS 01:40:02.40 6,9 LUNGO
1113 1960 GIMENO JAVIER M 1082 BMJ 01:40:02.90 6,9 LUNGO
1114 1980 MULET MIGUEL M 1083 BMJ 01:40:04.10 6,9 LUNGO
1115 1024 SZEMETI SÁNDOR M 1084 INDIVIDUALE 01:40:07.90 6,89 LUNGO
1116 1052 VITORINO ANTONIO M 1085 CICLO CLUBE BTT DE ELVAS 01:40:11.70 6,89 LUNGO
1117 2212 KOVAC UROS M 1086 KK KAMEN KOCIPER 01:40:14.10 6,88 LUNGO
1118 2252 RIŽNAR DAVORIN M 1087 INDIVIDUALE 01:40:16.20 6,88 LUNGO
1119 1053 WATERFALL BEN M 1088 LANTERNE ROUGE 01:40:18.90 6,88 LUNGO
1120 741 ASHLIN TIMOTHY M 1089 LANTERNE ROUGE 01:40:19.80 6,88 LUNGO
1121 1330 BJERREGAARD ALLAN M 1090 KEMP & LAURITZEN 01:40:21.40 6,88 LUNGO
1122 2232 KEMPE BERND M 1091 RED-MARIN 01:40:25.60 6,87 LUNGO
1123 305 DALSAGER MICHAEL M 1092 INDIVIDUALE 01:40:26.50 6,87 LUNGO
1124 2701 MESCIERI MATTIA M 1093 US LEGNANESE 01:40:44.90 6,85 LUNGO
1125 2377 CIPOLAT GOTET ALESSANDRO M 1094 CUSATI BIKE TEAM 01:40:45.40 6,85 LUNGO
1126 1320 NIELSEN LOTTE HYLDAHL F 31 INDIVIDUALE 01:40:47.70 6,85 LUNGO
1127 704 DINVERNO STEVE M 1095 INDIVIDUALE 01:40:51.90 6,84 LUNGO
1128 1823 JORDAN BOŠTJAN M 1096 ŠD POLICIST 01:40:57.90 6,84 LUNGO
1129 1966 KERKUSKA IMRE M 1097 INDIVIDUALE 01:40:58.30 6,83 LUNGO
1130 1745 HASKINS PAUL M 1098 INDIVIDUALE 01:41:07.60 6,82 LUNGO
1131 1036 TRAPERO MORAL MANUEL M 1099 C.C ESPRINT BIKE 01:41:10.10 6,82 LUNGO
1132 796 CAVALIERI BENEDETTO M 1100 INDIVIDUALE 01:41:10.40 6,82 LUNGO
1133 1944 BARANOWSKI TADEUSZ M 1101 GRUPETTO WARSZAWA 01:41:10.90 6,82 LUNGO
1134 2399 JASTRZEBSKI WOJTEK M 1102 K.S. TECZA / SZTAFLONY 01:41:14.70 6,82 LUNGO
1135 553 ROVEDA DAVIDE M 1103 US LEGNANESE 01:41:16.90 6,81 LUNGO
1136 1529 SEO DONGWON M 1104 INDIVIDUALE 01:41:20.90 6,81 LUNGO
1137 1895 CASADEI LUCA M 1105 ASD SID STRENZ I DENT SPORT TEAM 01:41:30.50 6,8 LUNGO
1138 718 RALPH ANDREW M 1106 INDIVIDUALE 01:41:31.60 6,8 LUNGO
1139 1984 OLSEN JORGEN M 1107 DAHVID 01:41:34.10 6,79 LUNGO
1140 1295 O'BRIEN NIAMH F 32 ORWELL WHEELERS 01:41:35.70 6,79 LUNGO
1141 1566 FATTORINI MASSIMO M 1108 GIUSFREDI CICLISMO 01:41:38.80 6,79 LUNGO
1142 353 WESTPHAL JENSEN MORTEN M 1109 INDIVIDUALE 01:41:40.90 6,79 LUNGO
1143 765 BOHÁC PAVEL M 1110 INDIVIDUALE 01:41:43.40 6,78 LUNGO
1144 794 CASTRO VIDAL M 1111 PINABIKE 01:41:46.10 6,78 LUNGO
1145 1790 MAES LARS M 1112 TEAM LIMBURG 01:41:47.20 6,78 LUNGO
1146 268 SØRENSEN JACOB BERTEL M 1113 RUBY REJSER 01:41:50.10 6,78 LUNGO
1147 703 CUDDIHY MARC M 1114 INDIVIDUALE 01:41:50.60 6,78 LUNGO

Classifica elaborata da www.winningtime.it


SANTINI GRANFONDO STELVIO
CRONOSCALATA MORTIROLO - KM 11,50

Posiz Pett Cognome Sesso PosSex Società Tempo Media Percorso


1148 644 MICHALAK PETR M 1115 INDIVIDUALE 01:41:55.90 6,77 LUNGO
1149 2274 GRANDE CASAS JOSE RAMON M 1116 INDIVIDUALE 01:41:56.60 6,77 LUNGO
1150 739 ARAÚJO JOSÉ M 1117 CICLO CLUBE BTT DE ELVAS 01:41:58.80 6,77 LUNGO
1151 639 MANETAS ALEX M 1118 INDIVIDUALE 01:41:58.80 6,77 LUNGO
1152 1237 POLO SERGIO M 1119 TEAM VARGAS 01:42:01.30 6,76 LUNGO
1153 1463 PESCHKE ACHIM M 1120 INDIVIDUALE 01:42:01.70 6,76 LUNGO
1154 2358 KARALIS IOANNIS M 1121 ERMIS 01:42:01.90 6,76 LUNGO
1155 1996 ZIOLKOWSKI MAREK M 1122 RST SOFTWARE MASTERS 01:42:15.00 6,75 LUNGO
1156 1999 BOMBA PIOTR M 1123 NA PAZURKI 01:42:15.90 6,75 LUNGO
1157 1097 HOPKINSON STUART M 1124 INDIVIDUALE 01:42:24.40 6,74 LUNGO
1158 1163 FANTINI ANTONIO M 1125 GS PEDALE PIETRASANTINO 01:42:28.80 6,73 LUNGO
1159 2493 BANG JENS CHRISTIAN M 1126 INDIVIDUALE 01:42:29.40 6,73 LUNGO
1160 2153 GOODMAN RICHARD M 1127 INDIVIDUALE 01:42:34.10 6,73 LUNGO
1161 2275 JUNQUERA REY SILVIA F 33 SPORTBIKEBCN 01:42:51.10 6,71 LUNGO
1162 2484 KAMINSKY HAGEN M 1128 INDIVIDUALE 01:42:51.30 6,71 LUNGO
1163 2172 KIEFFER PATRICK M 1129 VC MULLERTHAL CYCLING 01:42:57.30 6,7 LUNGO
1164 1982 NIELSEN ERNST M 1130 DAHVID 01:43:02.80 6,7 LUNGO
1165 1431 TILSTED PETER M 1131 INDIVIDUALE 01:43:07.20 6,69 LUNGO
1166 1726 MONSTER JAN-JAAP M 1132 INDIVIDUALE 01:43:15.70 6,68 LUNGO
1167 267 SOEEGAARD KLAUS M 1133 RUBY REJSER 01:43:16.10 6,68 LUNGO
1168 2007 MORETTI ANDREA M 1134 100%BIKE 01:43:16.50 6,68 LUNGO
1169 3275 WILSON KIM M 1135 RUBY REJSER 01:43:17.40 6,68 LUNGO
1170 1374 STRUPL JIRI M 1136 INDIVIDUALE 01:43:19.60 6,68 LUNGO
1171 1860 PAGNAN TOMMASO M 1137 INDIVIDUALE 01:43:28.60 6,67 LUNGO
1172 342 PEDERSEN MORTEN M 1138 INDIVIDUALE 01:43:30.40 6,67 LUNGO
1173 2052 RODRÍGUEZ MARTÍNEZ OLEGARIO M 1139 KM 0 01:43:31.10 6,67 LUNGO
1174 282 HSU YU FANG F 34 INDIVIDUALE 01:43:36.60 6,66 LUNGO
1175 2374 ROMANI ANDREA M 1140 ASD GIUSFREDI 01:43:38.20 6,66 LUNGO
1176 232 GOEHNS JOAKIM M 1141 RUBY REJSER 01:43:41.50 6,65 LUNGO
1177 248 KÆRGAARD RYAN ENGELST M 1142 RUBY REJSER 01:43:42.50 6,65 LUNGO
1178 2304 MASTAGNI SIMONE M 1143 SHAPE INTERNATIONAL CYCLING CLUB 01:43:51.50 6,64 LUNGO
1179 2084 BLAGOJEVIC BORIS M 1144 BORIS BLAGOJEVIC 01:43:54.20 6,64 LUNGO
1180 1103 JONES NATHAN M 1145 INDIVIDUALE 01:44:00.40 6,63 LUNGO
1181 1362 BELL ROBERT M 1146 INDIVIDUALE 01:44:05.30 6,63 LUNGO
1182 2321 BOOTSMA SIEBRAND M 1147 NTFU 344689 01:44:08.80 6,63 LUNGO
1183 320 LARSEN DORTE F 35 INDIVIDUALE 01:44:09.70 6,63 LUNGO
1184 2460 RANGER THOMAS M 1148 COLNAGO ONLY 01:44:09.80 6,63 LUNGO

Classifica elaborata da www.winningtime.it


SANTINI GRANFONDO STELVIO
CRONOSCALATA MORTIROLO - KM 11,50

Posiz Pett Cognome Sesso PosSex Società Tempo Media Percorso


1185 1637 TRENTIN THOMAS M 1149 ANMIL SPORT ITALIA 01:44:12.90 6,62 LUNGO
1186 947 NOTARPASQUALE ENRICO M 1150 MOUNTAIN BIKE CLUB CECINA 01:44:21.60 6,61 LUNGO
1187 1619 HAM JONGHOON M 1151 DOSSA DONGBU 01:44:31.00 6,6 LUNGO
1188 413 GIANNINI MARIO M 1152 ASD PEDALE ARQUATESE 01:44:34.80 6,6 LUNGO
1189 1312 KAISER FRANZ M 1153 INDIVIDUALE 01:44:54.90 6,58 LUNGO
1190 1499 SANG SOO LEE M 1154 GCC TEAM 01:45:00.00 6,57 LUNGO
1191 2210 FAGGIONATO MARC M 1155 INDIVIDUALE 01:45:00.10 6,57 LUNGO
1192 1532 BEENAERTS TOM M 1156 DE VENTIELTJES 01:45:03.80 6,57 LUNGO
1193 875 ITALIA SOFIO M 1157 AS DILETTANTISTICA SPORTING CLUB SORTINO BIKE 01:45:10.70 6,56 LUNGO
1194 140 JUST CHRISTENSEN FINN M 1158 INDIVIDUALE 01:45:15.90 6,56 LUNGO
1195 571 GALBA ATTILA M 1159 INDIVIDUALE 01:45:24.10 6,55 LUNGO
1196 1636 TERRANOVA GIANCARLO M 1160 INDIVIDUALE 01:45:25.20 6,55 LUNGO
1197 2670 MARIK RADEK M 1161 INDIVIDUALE 01:45:27.40 6,54 LUNGO
1198 776 BUCCHERI LUIGI M 1162 AS DILETTANTISTICA SPORTING CLUB SORTINO BIKE 01:45:28.60 6,54 LUNGO
1199 1632 MUELLER ALEX M 1163 TRANSALP GRANDIOSO 01:45:29.60 6,54 LUNGO
1200 55 MARFOGLIA SUSANNA F 36 US BORMIESE 01:45:33.20 6,54 LUNGO
1201 136 CUMMINGS KYLE M 1164 INDIVIDUALE 01:45:37.20 6,53 LUNGO
1202 269 SØRENSEN LARS BERTEL M 1165 RUBY REJSER 01:45:53.60 6,52 LUNGO
1203 2603 POLENGHI BRUNO LUIGI M 1166 TEAM MILANO CYCLING ASD 01:45:56.50 6,51 LUNGO
1204 1617 FUMEY THOMAS M 1167 BOURVIL VÉLO CLUB 01:45:59.80 6,51 LUNGO
1205 1774 CHRISTENSEN MICHAEL M 1168 INDIVIDUALE 01:46:02.00 6,51 LUNGO
1206 1775 CMIEL BENJAMIN BASTIAN M 1169 INDIVIDUALE 01:46:02.60 6,51 LUNGO
1207 519 LA MARCA ALESSANDRO M 1170 ROMPIBIKENARCAO 01:46:03.60 6,51 LUNGO
1208 671 THISSEN-SMITS MARIANNE F 37 INDIVIDUALE 01:46:05.20 6,5 LUNGO
1209 2089 LIGHTBODY DAVID M 1171 LODTRONIXRACING.ES 01:46:13.60 6,5 LUNGO
1210 239 IDMYR LARS M 1172 RUBY REJSER 01:46:20.00 6,49 LUNGO
1211 635 KUBIAK PRZEMYSLAW M 1173 INDIVIDUALE 01:46:22.30 6,49 LUNGO
1212 410 VENERITO ALEX M 1174 ASD MTB PAVIA 2000 BY ZAMAI 01:46:29.40 6,48 LUNGO
1213 1469 LEE HYUNG-MIN M 1175 SINGLE 01:46:31.30 6,48 LUNGO
1214 202 POHORELEC PETER M 1176 INDIVIDUALE 01:46:37.60 6,47 LUNGO
1215 256 PALNE RENE ØSTERGAARD M 1177 RUBY REJSER 01:46:49.10 6,46 LUNGO
1216 1371 QUAGGETTO LORIS M 1178 ADS TEAM PERINI BIKE 01:46:50.60 6,46 LUNGO
1217 1496 KÖRBLER PETER M 1179 ÖTB TURNVEREIN FRIESACH 01:46:56.00 6,45 LUNGO
1218 2080 STEFAN GNANDT M 1180 VINIBIKE KSE 01:47:22.00 6,43 LUNGO
1219 1905 SORENSEN CLAUS BO M 1181 SCR MOTION 01:47:23.50 6,43 LUNGO
1220 1611 BENZ ROBYN F 38 INDIVIDUALE 01:47:25.80 6,42 LUNGO
1221 303 CHRISTENSEN OLE M 1182 INDIVIDUALE 01:47:40.50 6,41 LUNGO

Classifica elaborata da www.winningtime.it


SANTINI GRANFONDO STELVIO
CRONOSCALATA MORTIROLO - KM 11,50

Posiz Pett Cognome Sesso PosSex Società Tempo Media Percorso


1222 1654 HOY STEVE M 1183 INDIVIDUALE 01:47:44.50 6,4 LUNGO
1223 846 GHISLENI GIUSEPPE M 1184 INDIVIDUALE 01:48:00.50 6,39 LUNGO
1224 3260 MARCHESE PIETRO M 1185 ASD IL PEDALE NEL CUORE 01:48:06.60 6,38 LUNGO
1225 897 LANZILOTTI ANGELO M 1186 ASD CARBINIA BIKE 01:48:25.90 6,36 LUNGO
1226 1983 NÖTZEL MARKUS M 1187 INDIVIDUALE 01:48:43.40 6,35 LUNGO
1227 1008 SIGNORELLI FABIO M 1188 US LEGNANESE 01:48:47.30 6,34 LUNGO
1228 2262 BROWN STEPHEN M 1189 INDIVIDUALE 01:48:52.10 6,34 LUNGO
1229 1970 KRISZTIAN DREMAK M 1190 SUPERIOR MTB TEAM HUNGARY 01:49:20.60 6,31 LUNGO
1230 855 GUYON ERIC M 1191 INDIVIDUALE 01:49:22.20 6,31 LUNGO
1231 1051 VITIELLO GIOVANNI M 1192 AS DILETTANTISTICA SPORTING CLUB SORTINO BIKE 01:49:36.80 6,3 LUNGO
1232 2349 ROHM CONSTANZE F 39 INDIVIDUALE 01:49:42.00 6,29 LUNGO
1233 1848 ANGLANO PIETRO M 1193 ASD LA TARANTA 01:49:55.50 6,28 LUNGO
1234 1864 VALENTE FABRIZIO M 1194 ASD LA TARANTA 01:49:58.60 6,27 LUNGO
1235 915 MANZARI SAVERIO M 1195 SC CASAMASSIMA-LABICICLETTASTORE.IT 01:49:58.90 6,27 LUNGO
1236 755 BENZI PIERO M 1196 US LEGNANESE 01:50:08.00 6,27 LUNGO
1237 1697 CARMEN HILDEBRAND F 40 INDIVIDUALE 01:50:08.60 6,27 LUNGO
1238 833 FLEISCHER RONNY M 1197 HAIRLINERS 01:50:17.00 6,26 LUNGO
1239 1631 HEILIG ROMAN M 1198 INDIVIDUALE 01:50:20.20 6,25 LUNGO
1240 265 ROTH KIM ROAR M 1199 RUBY REJSER 01:50:26.60 6,25 LUNGO
1241 2326 SZILÁRD POLGÁRDY M 1200 INDIVIDUALE 01:50:45.70 6,23 LUNGO
1242 1441 LOSADA ALVAREZ LUIS EDUARDO M 1201 INDIVIDUALE 01:50:53.80 6,22 LUNGO
1243 47 SCHIANTARELLI LUCA M 1202 US BORMIESE 01:51:00.00 6,22 LUNGO
1244 381 SALVAN DAVIDE M 1203 ASD AMICI DEL CICLO DI VIGLIANO B.SE 01:51:02.80 6,21 LUNGO
1245 1149 BAUER ANDREAS M 1204 HAIRLINERS AKTIVE 01:51:07.70 6,21 LUNGO
1246 1965 KENNEDY PAUL M 1205 INDIVIDUALE 01:51:09.15 6,21 LUNGO
1247 1023 SUMMERER STEFAN M 1206 SEMPRE IN MOVIMENTO 01:51:23.90 6,19 LUNGO
1248 964 PFESTORF TIMO M 1207 UCBC 01:51:30.00 6,19 LUNGO
1249 2413 CLAUDE DARCIS M 1208 INDIVIDUALE 01:51:36.10 6,18 LUNGO
1250 2450 ERGUN ISMAIL M 1209 LEFTRIGHT MULTISPORT 01:51:36.80 6,18 LUNGO
1251 813 D'AGOSTINO MARCO M 1210 INDIVIDUALE 01:51:44.50 6,18 LUNGO
1252 802 CLAYTON JOHN M 1211 INDIVIDUALE 01:51:54.40 6,17 LUNGO
1253 1618 GUNNEKLEV TOR M 1212 INDIVIDUALE 01:51:59.50 6,16 LUNGO
1254 415 TIRELLI MASSIMO M 1213 ASD SAMBI TEAM 01:52:02.60 6,16 LUNGO
1255 1405 VIVARELLI GIANCARLO M 1214 ASD GRUPPO CICLISTICO '95 NOVARA 01:52:13.60 6,15 LUNGO
1256 475 GAITAN DIEGO M 1215 HILLS ANGELS 01:52:33.50 6,13 LUNGO
1257 2383 PIGNATTI ALBERTO M 1216 TURBOLENTO THINKBIKE SSDARL 01:52:51.80 6,11 LUNGO
1258 740 ARMBRUSTER PHILIPPE M 1217 ZUG ZURICH PELOTON 01:52:53.40 6,11 LUNGO

Classifica elaborata da www.winningtime.it


SANTINI GRANFONDO STELVIO
CRONOSCALATA MORTIROLO - KM 11,50

Posiz Pett Cognome Sesso PosSex Società Tempo Media Percorso


1259 971 PRAVETTONI LORENZO M 1218 INDIVIDUALE 01:53:09.80 6,1 LUNGO
1260 783 CALDWELL ALISON F 41 CLAPHAM CHASERS 01:53:20.00 6,09 LUNGO
1261 1493 KIM DAE MYUNG M 1219 GCC TEAM 01:53:24.50 6,08 LUNGO
1262 672 THOMET MARKUS M 1220 INDIVIDUALE 01:53:31.20 6,08 LUNGO
1263 1541 BERCKMANS DRIES M 1221 DE VENTIELTJES 01:53:34.00 6,08 LUNGO
1264 1227 KARAGIANNIS GEORGIOS M 1222 KRONOS NIKAIAS 01:53:36.00 6,07 LUNGO
1265 414 BELTRANI DANIELE M 1223 ASD POLISPORTIVA PORTO FUORI 01:53:42.70 6,07 LUNGO
1266 857 HAMBURGER STEFAN M 1224 NUTRIXXION 01:54:14.90 6,04 LUNGO
1267 2067 BIGERNA ROBERTO M 1225 CIRCOLO DIPENDENTI PERUGINA APD 01:54:21.50 6,03 LUNGO
1268 260 PLEJDRUP PETER M 1226 RUBY REJSER 01:54:39.53 6,02 LUNGO
1269 1101 JAMES IAN M 1227 INDIVIDUALE 01:54:50.60 6,01 LUNGO
1270 2196 BARRIE PAUL M 1228 INDIVIDUALE 01:55:13.80 5,99 LUNGO
1271 1716 ROVEDA DANILO M 1229 Q.D.B.C 01:55:42.90 5,96 LUNGO
1272 1744 WARENG MICHAEL M 1230 BRITISH CYCLING 01:55:45.50 5,96 LUNGO
1273 579 APICELLA ADRIANO M 1231 INDIVIDUALE 01:56:00.30 5,95 LUNGO
1274 763 BIMET BRUNO M 1232 INDIVIDUALE 01:56:01.00 5,95 LUNGO
1275 605 DALLE FESTE FABIO M 1233 INDIVIDUALE 01:56:04.00 5,94 LUNGO
1276 680 WAGLAND GARETH M 1234 INDIVIDUALE 01:56:04.30 5,94 LUNGO
1277 593 CABA CURTIS M 1235 INDIVIDUALE 01:56:05.90 5,94 LUNGO
1278 949 OLIVEIRA FRANCISCO M 1236 PINABIKE 01:57:17.00 5,88 LUNGO
1279 2438 SCHREIBER TAMÁS M 1237 INDIVIDUALE 01:57:35.80 5,87 LUNGO
1280 933 MORGAN PHIL M 1238 PONTYCLUN FLYERS 01:57:52.60 5,85 LUNGO
1281 2317 STORR KEN M 1239 INDIVIDUALE 01:57:54.80 5,85 LUNGO
1282 2312 BLAKE KATE F 42 INDIVIDUALE 01:57:56.80 5,85 LUNGO
1283 2667 BONSOMS GONZALEZ MARC BONSOMS GONZALEZ M 1240 C.C SPRINT BIKE 01:58:02.30 5,85 LUNGO
1284 2156 PARRY IAN M 1241 INDIVIDUALE 01:58:11.20 5,84 LUNGO
1285 508 RASMUSSEN JENS M 1242 REINHART CYKLING 01:58:33.60 5,82 LUNGO
1286 917 MARTINEZ CARBONELL CARLES M 1243 MUNTBIKES 01:58:47.80 5,81 LUNGO
1287 252 LUND-BURMEISTER TONY DIMITRIS M 1244 RUBY REJSER 01:59:16.80 5,79 LUNGO
1288 250 KONGSTAD CHRISTIAN ADAM M 1245 RUBY REJSER 01:59:41.10 5,77 LUNGO
1289 1736 GRENIER JONATHAN M 1246 RANDSTAD CYCLING TEAM 02:00:50.30 5,71 LUNGO
1290 2055 CANORI MICHAELA F 43 INDIVIDUALE 02:01:18.30 5,69 LUNGO
1291 1815 AKPANA IBOROMA M 1247 INDIVIDUALE 02:01:18.70 5,69 LUNGO
1292 2226 MALIK AKBAR M 1248 INDIVIDUALE 02:01:34.80 5,68 LUNGO
1293 712 MCDONAGH JOHN M 1249 INDIVIDUALE 02:02:03.00 5,65 LUNGO
1294 2655 ALVAREZ FERNANDO M 1250 CALIFORNIA SWISS CYCLING TEAM 02:02:10.70 5,65 LUNGO
1295 706 EVANS MARK M 1251 INDIVIDUALE 02:02:16.60 5,64 LUNGO

Classifica elaborata da www.winningtime.it


SANTINI GRANFONDO STELVIO
CRONOSCALATA MORTIROLO - KM 11,50

Posiz Pett Cognome Sesso PosSex Società Tempo Media Percorso


1296 2319 NERI TIZIANO M 1252 TEAM VALLONE 02:02:30.50 5,63 LUNGO
1297 2455 GYORI GABOR M 1253 INDIVIDUALE 02:02:59.80 5,61 LUNGO
1298 2499 PAOLETTI LEONARDO M 1254 AS TEAM GULLIVER BIKE 02:03:24.60 5,59 LUNGO
1299 2054 AGAZZANI LUCA M 1255 INDIVIDUALE 02:03:46.30 5,58 LUNGO
1300 901 LESZCZAK WOJCIECH M 1256 INDIVIDUALE 02:04:19.15 5,55 LUNGO
1301 684 DEPOORTERE STEVEN M 1257 INDIVIDUALE 02:04:28.76 5,54 LUNGO
1302 1423 NISSEN GERT M 1258 TEAM NOVICE 02:04:44.30 5,53 LUNGO
1303 27 BRADANINI FRANCESCO M 1259 US BORMIESE 02:05:06.90 5,52 LUNGO
1304 726 AFOLABI SHEYI F 44 CYCOLOGY 02:05:20.20 5,51 LUNGO
1305 666 SLIWKA CHRISTOF M 1260 INDIVIDUALE 02:07:13.70 5,42 LUNGO
1306 1599 CHOI JINTAEK M 1261 DOSSA DONGBU 02:07:46.70 5,4 LUNGO
1307 2136 CARLTON ROD M 1262 INDIVIDUALE 02:07:51.40 5,4 LUNGO
1308 275 CHEN HSIEN F 45 INDIVIDUALE 02:08:14.90 5,38 LUNGO
1309 2231 KEEGAN GARETH M 1263 INDIVIDUALE 02:08:37.30 5,36 LUNGO
1310 2248 RUTA STEFANO M 1264 QUELLI DELLA BIKE CYCLING 02:08:40.75 5,36 LUNGO
1311 2123 GARIBALDI MATTEO M 1265 ASD TEAM EVO PROJECT 02:08:51.00 5,36 LUNGO
1312 889 KREDEL PATRICK M 1266 #RIDEPUNKX POWERED BY DRAHTESEL-LÜTZELBACH.DE 02:09:04.60 5,35 LUNGO
1313 2694 DI NARDI DARIO MARCO ANGELO ROBERTO M 1267 ASD EUROBICI 02:09:37.10 5,32 LUNGO
1314 826 EVANS GARY M 1268 INDIVIDUALE 02:09:40.00 5,32 LUNGO
1315 828 FAEDDA CARLO M 1269 INDIVIDUALE 02:10:59.70 5,27 LUNGO
1316 1948 BORDOY LARS M 1270 DAHVID 02:11:38.00 5,24 LUNGO
1317 2400 NARCISI ADELFO M 1271 S.C. VILLA S.ANTONIO CICLI COCCI 02:13:04.00 5,19 LUNGO
1318 1870 FONG ED (SPINNING MONKEY) M 1272 KOPI RIDERS 02:16:36.10 5,05 LUNGO
1319 2689 OLIVEROS SARAHI F 46 US BORMIESE 02:16:36.38 5,05 LUNGO
1320 1138 VERMEYEN RAF M 1273 INDIVIDUALE 02:17:19.00 5,02 LUNGO
1321 904 LIU JACK M 1274 INDIVIDUALE 02:20:30.98 4,91 LUNGO
1322 2118 BIOCCA PAOLO M 1275 ASD COLONNELLA CYCLING TEAM 02:32:16.00 4,53 LUNGO
1323 290 LIU WEICHIH M 1276 INDIVIDUALE 02:41:13.50 4,28 LUNGO
1324 1447 WANTAE KIM, M 1277 GCC 03:48:22.38 3,02 LUNGO
1325 1557 SHIN GYEOM SEUNG M 1278 LAPIERRE 03:50:41.37 2,99 LUNGO

Classifica elaborata da www.winningtime.it

Intereses relacionados